ECMWFNIL_prec_pwat_000.txt.gz
Precipitable_Water
0.90 0.85 0.80 0.70 0.64 0.61 0.59 0.54 0.47 0.41 0.40 0.39 0.38 0.38 0.37 0.38 0.41 0.40 0.40 0.41 0.41 0.41 0.41 0.42 0.43 0.42 0.41 0.40 0.39 0.38 0.36 0.34 0.33 0.32 0.31 0.32 0.32 0.32 0.31 0.30 0.29 0.27
0.86 0.87 0.81 0.72 0.68 0.67 0.64 0.58 0.53 0.49 0.46 0.44 0.44 0.45 0.46 0.48 0.50 0.49 0.48 0.47 0.46 0.46 0.47 0.48 0.49 0.49 0.48 0.47 0.45 0.41 0.39 0.38 0.37 0.38 0.34 0.34 0.36 0.37 0.36 0.35 0.33 0.31
0.82 0.83 0.79 0.69 0.68 0.68 0.66 0.63 0.61 0.58 0.54 0.50 0.50 0.51 0.51 0.53 0.53 0.53 0.52 0.50 0.48 0.49 0.52 0.53 0.53 0.52 0.51 0.51 0.49 0.46 0.45 0.46 0.46 0.47 0.44 0.41 0.41 0.41 0.43 0.44 0.44 0.42
0.84 0.83 0.81 0.71 0.69 0.69 0.70 0.66 0.66 0.65 0.63 0.59 0.57 0.56 0.57 0.58 0.57 0.56 0.56 0.54 0.52 0.50 0.51 0.54 0.55 0.55 0.54 0.52 0.50 0.49 0.51 0.53 0.54 0.55 0.52 0.51 0.49 0.47 0.46 0.47 0.49 0.50
0.85 0.86 0.87 0.79 0.71 0.73 0.75 0.71 0.69 0.68 0.66 0.64 0.63 0.63 0.63 0.63 0.61 0.60 0.59 0.57 0.55 0.54 0.53 0.54 0.56 0.56 0.56 0.55 0.54 0.52 0.52 0.53 0.56 0.56 0.53 0.52 0.53 0.53 0.52 0.51 0.50 0.51
0.85 0.84 0.87 0.84 0.76 0.73 0.74 0.74 0.73 0.71 0.70 0.68 0.64 0.65 0.66 0.66 0.66 0.65 0.65 0.63 0.61 0.58 0.56 0.58 0.58 0.59 0.59 0.58 0.58 0.57 0.56 0.55 0.56 0.55 0.53 0.53 0.54 0.55 0.53 0.53 0.53 0.51
0.84 0.83 0.82 0.82 0.77 0.76 0.75 0.77 0.77 0.77 0.75 0.73 0.72 0.69 0.69 0.68 0.67 0.67 0.69 0.70 0.68 0.68 0.67 0.66 0.65 0.66 0.65 0.63 0.61 0.60 0.61 0.60 0.60 0.57 0.55 0.55 0.56 0.56 0.55 0.54 0.54 0.54
0.85 0.86 0.85 0.83 0.79 0.79 0.78 0.79 0.80 0.82 0.80 0.79 0.75 0.74 0.76 0.75 0.74 0.74 0.73 0.71 0.70 0.70 0.71 0.71 0.71 0.71 0.72 0.71 0.68 0.68 0.69 0.69 0.66 0.65 0.63 0.61 0.60 0.59 0.58 0.58 0.56 0.54
0.84 0.85 0.85 0.84 0.83 0.82 0.81 0.82 0.84 0.86 0.86 0.82 0.79 0.79 0.81 0.80 0.80 0.81 0.80 0.77 0.76 0.76 0.76 0.75 0.75 0.74 0.76 0.75 0.74 0.72 0.71 0.72 0.71 0.69 0.68 0.68 0.67 0.66 0.64 0.65 0.62 0.59
0.79 0.82 0.84 0.84 0.81 0.85 0.86 0.88 0.90 0.97 0.94 0.86 0.84 0.83 0.81 0.82 0.82 0.83 0.84 0.84 0.82 0.82 0.82 0.81 0.79 0.80 0.80 0.80 0.79 0.77 0.74 0.73 0.74 0.71 0.71 0.72 0.72 0.71 0.70 0.69 0.66 0.62
0.85 0.84 0.83 0.85 0.85 0.90 0.87 0.90 0.91 0.94 1.00 0.94 0.90 0.86 0.85 0.84 0.86 0.85 0.84 0.85 0.85 0.84 0.85 0.85 0.85 0.85 0.83 0.82 0.82 0.82 0.81 0.78 0.75 0.74 0.74 0.74 0.73 0.71 0.69 0.69 0.68 0.65
0.80 0.83 0.85 0.88 0.90 0.95 1.02 1.01 1.05 1.01 0.98 0.97 0.97 0.93 0.91 0.90 0.88 0.87 0.86 0.85 0.85 0.85 0.87 0.88 0.88 0.87 0.85 0.83 0.82 0.83 0.84 0.84 0.78 0.74 0.76 0.75 0.73 0.72 0.71 0.70 0.69 0.68
0.84 0.89 0.88 0.85 0.87 0.89 0.94 1.03 1.06 1.09 1.10 1.01 0.98 1.04 1.03 1.00 0.97 0.92 0.92 0.88 0.86 0.86 0.85 0.85 0.85 0.86 0.86 0.85 0.83 0.82 0.84 0.85 0.84 0.77 0.75 0.75 0.75 0.75 0.74 0.71 0.69 0.69
0.88 0.88 0.87 0.89 0.96 0.99 0.98 0.98 1.05 1.04 1.06 1.05 0.95 1.04 1.02 1.02 1.06 1.05 1.04 0.95 0.90 0.86 0.84 0.83 0.83 0.84 0.85 0.83 0.84 0.85 0.84 0.85 0.85 0.81 0.76 0.75 0.75 0.76 0.76 0.74 0.72 0.71
0.95 0.96 0.95 0.91 0.91 0.99 1.07 1.07 1.01 1.04 1.10 1.10 1.09 1.05 1.00 0.97 0.94 0.92 0.92 0.96 0.95 0.89 0.84 0.83 0.81 0.80 0.78 0.76 0.75 0.78 0.81 0.80 0.82 0.82 0.79 0.76 0.76 0.77 0.78 0.77 0.75 0.74
0.83 0.84 0.90 1.00 0.95 0.89 0.89 0.97 0.95 0.89 0.91 0.96 1.00 0.98 0.94 0.93 0.91 0.90 0.90 0.86 0.83 0.85 0.84 0.82 0.80 0.78 0.76 0.75 0.77 0.78 0.78 0.77 0.77 0.79 0.81 0.79 0.76 0.75 0.76 0.77 0.77 0.77
0.80 0.80 0.83 0.86 0.87 0.84 0.88 0.92 0.92 0.90 0.89 0.83 0.82 0.84 0.85 0.91 0.89 0.85 0.83 0.80 0.76 0.75 0.76 0.78 0.80 0.81 0.80 0.80 0.80 0.82 0.83 0.82 0.81 0.80 0.82 0.81 0.78 0.76 0.75 0.77 0.78 0.78
0.74 0.77 0.82 0.85 0.81 0.77 0.77 0.78 0.81 0.78 0.77 0.77 0.77 0.77 0.82 0.81 0.74 0.69 0.68 0.69 0.71 0.71 0.72 0.74 0.76 0.78 0.77 0.77 0.77 0.78 0.79 0.80 0.80 0.79 0.79 0.78 0.77 0.76 0.79 0.81 0.80 0.79
0.68 0.69 0.70 0.71 0.72 0.70 0.68 0.66 0.65 0.67 0.66 0.64 0.63 0.63 0.62 0.59 0.57 0.58 0.61 0.67 0.70 0.70 0.71 0.74 0.75 0.74 0.74 0.77 0.79 0.80 0.82 0.83 0.82 0.80 0.77 0.77 0.78 0.81 0.80 0.79 0.78 0.77
0.60 0.61 0.61 0.62 0.64 0.61 0.59 0.57 0.57 0.56 0.57 0.58 0.58 0.56 0.55 0.58 0.63 0.65 0.66 0.66 0.67 0.66 0.66 0.67 0.69 0.70 0.70 0.69 0.70 0.71 0.72 0.73 0.75 0.75 0.74 0.77 0.81 0.82 0.82 0.82 0.80 0.76
0.51 0.49 0.49 0.50 0.50 0.50 0.50 0.50 0.50 0.49 0.49 0.52 0.56 0.57 0.55 0.53 0.53 0.53 0.56 0.59 0.59 0.58 0.55 0.53 0.54 0.54 0.52 0.50 0.48 0.49 0.52 0.56 0.60 0.64 0.66 0.70 0.75 0.78 0.82 0.82 0.80 0.78
0.49 0.49 0.49 0.49 0.48 0.48 0.48 0.47 0.45 0.46 0.45 0.45 0.45 0.49 0.52 0.53 0.53 0.52 0.50 0.50 0.52 0.52 0.49 0.47 0.49 0.49 0.49 0.47 0.45 0.44 0.46 0.50 0.54 0.58 0.61 0.62 0.66 0.71 0.77 0.80 0.82 0.77
0.49 0.49 0.49 0.48 0.47 0.46 0.44 0.42 0.40 0.39 0.39 0.40 0.38 0.39 0.40 0.41 0.43 0.43 0.45 0.45 0.46 0.47 0.47 0.48 0.49 0.49 0.48 0.45 0.43 0.42 0.42 0.44 0.46 0.51 0.56 0.59 0.60 0.63 0.65 0.66 0.68 0.69
0.49 0.49 0.48 0.48 0.47 0.45 0.43 0.43 0.43 0.42 0.41 0.41 0.38 0.40 0.40 0.42 0.45 0.48 0.49 0.49 0.48 0.49 0.50 0.49 0.50 0.51 0.50 0.48 0.47 0.46 0.46 0.45 0.45 0.45 0.46 0.48 0.51 0.54 0.55 0.57 0.60 0.64
0.52 0.51 0.50 0.49 0.48 0.47 0.47 0.46 0.44 0.43 0.41 0.42 0.41 0.41 0.42 0.44 0.46 0.48 0.51 0.53 0.53 0.53 0.53 0.52 0.51 0.51 0.51 0.51 0.49 0.48 0.48 0.48 0.48 0.47 0.46 0.46 0.48 0.51 0.53 0.54 0.55 0.59
0.58 0.57 0.55 0.53 0.52 0.52 0.52 0.50 0.48 0.45 0.44 0.43 0.42 0.41 0.41 0.42 0.44 0.47 0.49 0.53 0.55 0.54 0.53 0.53 0.51 0.51 0.52 0.52 0.52 0.51 0.49 0.47 0.46 0.45 0.44 0.45 0.47 0.48 0.50 0.53 0.55 0.56

ECMWFNIL_prec_pwat_003.txt.gz
Precipitable_Water
0.85 0.82 0.81 0.84 0.73 0.66 0.59 0.52 0.49 0.42 0.39 0.38 0.35 0.36 0.37 0.38 0.40 0.38 0.39 0.40 0.40 0.39 0.39 0.37 0.35 0.32 0.31 0.31 0.32 0.31 0.31 0.32 0.32 0.33 0.32 0.32 0.31 0.30 0.29 0.28 0.27 0.26
0.91 0.89 0.87 0.87 0.82 0.70 0.61 0.55 0.52 0.48 0.44 0.43 0.41 0.40 0.41 0.40 0.40 0.40 0.40 0.41 0.41 0.41 0.42 0.41 0.40 0.39 0.38 0.37 0.35 0.34 0.34 0.34 0.35 0.39 0.37 0.37 0.36 0.35 0.34 0.33 0.33 0.35
0.96 0.93 0.86 0.79 0.80 0.71 0.62 0.59 0.57 0.54 0.51 0.49 0.49 0.48 0.47 0.49 0.47 0.47 0.47 0.47 0.46 0.47 0.48 0.48 0.48 0.47 0.45 0.42 0.41 0.40 0.40 0.39 0.38 0.40 0.40 0.40 0.42 0.41 0.42 0.43 0.43 0.43
0.99 0.97 0.93 0.85 0.81 0.75 0.64 0.62 0.60 0.58 0.57 0.54 0.52 0.52 0.53 0.53 0.52 0.51 0.51 0.51 0.51 0.52 0.53 0.53 0.52 0.52 0.51 0.49 0.48 0.48 0.49 0.48 0.47 0.46 0.44 0.44 0.44 0.44 0.45 0.47 0.47 0.46
0.94 0.97 0.95 0.87 0.78 0.83 0.71 0.63 0.63 0.61 0.58 0.57 0.57 0.56 0.56 0.57 0.55 0.54 0.54 0.54 0.54 0.55 0.56 0.56 0.56 0.56 0.56 0.53 0.53 0.51 0.52 0.51 0.53 0.52 0.49 0.48 0.50 0.49 0.48 0.49 0.48 0.48
0.89 0.91 0.90 0.87 0.84 0.86 0.79 0.66 0.64 0.67 0.64 0.61 0.60 0.61 0.59 0.60 0.59 0.57 0.56 0.54 0.55 0.57 0.58 0.58 0.58 0.57 0.57 0.56 0.56 0.57 0.56 0.55 0.55 0.54 0.52 0.51 0.52 0.53 0.53 0.52 0.51 0.50
0.81 0.82 0.86 0.85 0.85 0.82 0.79 0.70 0.66 0.70 0.71 0.68 0.68 0.66 0.65 0.63 0.63 0.61 0.59 0.57 0.56 0.58 0.59 0.59 0.58 0.58 0.59 0.58 0.58 0.58 0.60 0.60 0.60 0.58 0.55 0.54 0.55 0.55 0.55 0.53 0.52 0.52
0.82 0.84 0.87 0.88 0.84 0.83 0.82 0.78 0.69 0.69 0.74 0.77 0.73 0.74 0.74 0.72 0.70 0.70 0.69 0.66 0.62 0.61 0.63 0.64 0.65 0.66 0.67 0.66 0.65 0.65 0.66 0.67 0.67 0.65 0.61 0.59 0.58 0.56 0.57 0.57 0.55 0.53
0.84 0.82 0.84 0.89 0.87 0.84 0.84 0.84 0.81 0.74 0.75 0.78 0.79 0.79 0.81 0.82 0.81 0.79 0.80 0.77 0.74 0.72 0.71 0.72 0.72 0.72 0.72 0.72 0.70 0.69 0.69 0.71 0.71 0.70 0.68 0.66 0.64 0.63 0.63 0.63 0.61 0.61
0.87 0.87 0.86 0.89 0.92 0.91 0.86 0.86 0.85 0.85 0.86 0.85 0.87 0.88 0.87 0.90 0.90 0.88 0.86 0.85 0.82 0.81 0.80 0.79 0.78 0.78 0.78 0.78 0.76 0.75 0.74 0.75 0.77 0.77 0.75 0.73 0.71 0.70 0.70 0.70 0.67 0.66
0.87 0.84 0.76 0.79 0.88 0.91 0.91 0.93 0.93 0.92 0.92 0.92 0.92 0.91 0.91 0.90 0.90 0.92 0.92 0.90 0.86 0.86 0.85 0.84 0.83 0.83 0.82 0.82 0.80 0.80 0.79 0.78 0.78 0.79 0.80 0.79 0.77 0.76 0.75 0.73 0.71 0.69
0.86 0.80 0.76 0.81 0.88 0.90 0.91 0.91 0.93 0.94 0.95 0.95 0.97 0.96 0.96 0.96 0.94 0.96 0.96 0.95 0.93 0.91 0.89 0.87 0.87 0.86 0.84 0.82 0.81 0.80 0.79 0.78 0.78 0.78 0.79 0.81 0.80 0.79 0.77 0.75 0.73 0.72
0.86 0.84 0.83 0.90 0.93 0.92 0.90 0.86 0.86 0.90 0.95 0.99 1.02 1.02 0.99 0.98 0.98 0.99 1.01 1.02 1.02 0.98 0.93 0.90 0.87 0.85 0.83 0.83 0.82 0.80 0.78 0.77 0.77 0.78 0.79 0.80 0.81 0.80 0.78 0.77 0.76 0.75
0.83 0.92 1.01 0.99 0.97 0.96 0.95 0.95 0.94 0.92 0.92 0.96 1.01 1.03 1.02 1.03 1.03 1.01 1.02 1.05 1.06 1.02 0.98 0.94 0.89 0.86 0.85 0.85 0.85 0.84 0.82 0.78 0.77 0.78 0.78 0.79 0.80 0.81 0.79 0.77 0.76 0.75
0.83 0.91 1.00 1.02 1.00 0.96 0.96 0.95 0.95 0.94 0.94 0.98 1.03 1.01 1.02 0.99 1.01 1.04 1.05 1.04 1.00 0.98 0.98 0.95 0.89 0.88 0.89 0.89 0.89 0.89 0.86 0.80 0.77 0.77 0.78 0.78 0.79 0.81 0.81 0.78 0.76 0.74
0.97 0.98 0.99 0.98 0.98 0.98 0.98 0.94 0.93 0.91 0.91 0.90 0.92 0.92 0.90 0.88 0.92 0.97 0.94 0.90 0.89 0.93 0.93 0.89 0.86 0.87 0.87 0.86 0.86 0.84 0.82 0.80 0.78 0.77 0.78 0.78 0.78 0.79 0.81 0.81 0.78 0.76
0.88 0.93 0.94 0.88 0.84 0.81 0.91 0.89 0.87 0.85 0.83 0.82 0.86 0.90 0.91 1.00 1.01 0.96 0.90 0.89 0.89 0.89 0.87 0.85 0.85 0.87 0.86 0.86 0.85 0.86 0.85 0.82 0.79 0.78 0.77 0.77 0.77 0.77 0.77 0.80 0.82 0.81
0.82 0.83 0.83 0.83 0.84 0.85 0.88 0.85 0.82 0.80 0.80 0.86 0.90 0.92 0.92 0.93 0.92 0.92 0.88 0.89 0.89 0.88 0.84 0.81 0.81 0.81 0.78 0.78 0.78 0.79 0.80 0.80 0.80 0.78 0.77 0.76 0.75 0.73 0.73 0.73 0.75 0.77
0.87 0.84 0.83 0.81 0.81 0.83 0.82 0.81 0.80 0.78 0.77 0.78 0.80 0.84 0.87 0.85 0.87 0.87 0.82 0.79 0.78 0.78 0.74 0.72 0.71 0.73 0.73 0.71 0.70 0.69 0.68 0.68 0.69 0.73 0.76 0.78 0.79 0.78 0.77 0.76 0.74 0.72
0.85 0.86 0.82 0.84 0.86 0.84 0.82 0.80 0.77 0.74 0.75 0.77 0.77 0.77 0.80 0.82 0.81 0.79 0.74 0.74 0.76 0.72 0.69 0.68 0.65 0.64 0.62 0.60 0.58 0.56 0.55 0.53 0.52 0.51 0.52 0.55 0.59 0.63 0.66 0.67 0.67 0.67
0.76 0.79 0.80 0.80 0.80 0.79 0.79 0.77 0.76 0.74 0.73 0.72 0.71 0.73 0.75 0.78 0.79 0.73 0.74 0.72 0.69 0.65 0.60 0.57 0.55 0.53 0.51 0.49 0.47 0.45 0.43 0.42 0.43 0.44 0.45 0.47 0.49 0.52 0.54 0.55 0.57 0.59
0.67 0.67 0.69 0.68 0.67 0.67 0.67 0.67 0.66 0.67 0.68 0.70 0.70 0.69 0.70 0.70 0.67 0.65 0.63 0.60 0.58 0.55 0.51 0.47 0.47 0.47 0.46 0.45 0.45 0.45 0.44 0.43 0.43 0.43 0.42 0.42 0.43 0.46 0.49 0.52 0.54 0.55
0.59 0.58 0.58 0.58 0.59 0.59 0.60 0.60 0.59 0.59 0.59 0.59 0.56 0.57 0.58 0.57 0.56 0.55 0.55 0.52 0.49 0.45 0.44 0.44 0.45 0.47 0.48 0.48 0.47 0.47 0.46 0.45 0.44 0.44 0.44 0.44 0.44 0.45 0.47 0.49 0.53 0.55
0.61 0.60 0.59 0.59 0.58 0.57 0.57 0.57 0.57 0.56 0.55 0.54 0.51 0.51 0.51 0.51 0.52 0.51 0.50 0.48 0.47 0.47 0.48 0.47 0.48 0.50 0.51 0.51 0.50 0.49 0.48 0.46 0.45 0.44 0.42 0.42 0.43 0.44 0.45 0.47 0.49 0.51
0.57 0.59 0.59 0.57 0.56 0.55 0.55 0.54 0.53 0.52 0.50 0.48 0.46 0.45 0.44 0.44 0.45 0.45 0.48 0.51 0.52 0.52 0.53 0.52 0.52 0.53 0.53 0.52 0.52 0.51 0.50 0.49 0.48 0.46 0.44 0.44 0.43 0.43 0.45 0.46 0.47 0.49
0.56 0.57 0.56 0.55 0.55 0.55 0.55 0.55 0.53 0.49 0.45 0.41 0.40 0.40 0.42 0.44 0.46 0.47 0.47 0.49 0.53 0.54 0.55 0.56 0.55 0.55 0.55 0.54 0.53 0.53 0.52 0.50 0.49 0.46 0.45 0.45 0.45 0.43 0.43 0.44 0.45 0.45

ECMWFNIL_prec_pwat_006.txt.gz
Precipitable_Water
0.99 0.88 0.78 0.72 0.73 0.70 0.66 0.59 0.53 0.49 0.46 0.44 0.41 0.41 0.42 0.43 0.44 0.40 0.39 0.40 0.40 0.38 0.37 0.37 0.36 0.35 0.36 0.37 0.38 0.35 0.32 0.31 0.32 0.32 0.32 0.31 0.30 0.29 0.27 0.27 0.27 0.27
0.96 0.89 0.83 0.79 0.81 0.82 0.73 0.64 0.55 0.49 0.46 0.44 0.44 0.45 0.46 0.45 0.43 0.40 0.39 0.39 0.39 0.37 0.36 0.33 0.33 0.34 0.35 0.35 0.35 0.34 0.34 0.34 0.33 0.35 0.32 0.30 0.30 0.30 0.30 0.32 0.33 0.35
1.00 0.92 0.87 0.82 0.84 0.84 0.74 0.68 0.58 0.52 0.48 0.47 0.46 0.46 0.47 0.48 0.45 0.45 0.45 0.44 0.43 0.42 0.40 0.39 0.39 0.40 0.40 0.39 0.39 0.39 0.38 0.38 0.37 0.38 0.36 0.35 0.36 0.37 0.39 0.40 0.41 0.40
1.05 1.00 0.97 0.87 0.85 0.82 0.79 0.71 0.61 0.56 0.54 0.53 0.51 0.51 0.52 0.52 0.51 0.51 0.52 0.53 0.52 0.51 0.50 0.50 0.48 0.47 0.46 0.46 0.45 0.45 0.45 0.45 0.45 0.45 0.44 0.44 0.44 0.44 0.44 0.44 0.44 0.44
0.97 0.96 0.96 0.92 0.89 0.88 0.82 0.75 0.65 0.59 0.56 0.55 0.56 0.57 0.56 0.57 0.56 0.57 0.57 0.57 0.57 0.57 0.57 0.57 0.55 0.51 0.51 0.51 0.51 0.49 0.49 0.49 0.51 0.50 0.48 0.48 0.49 0.49 0.50 0.49 0.48 0.48
0.94 0.95 0.93 0.91 0.88 0.80 0.76 0.75 0.71 0.64 0.60 0.57 0.57 0.59 0.58 0.59 0.58 0.58 0.59 0.59 0.59 0.60 0.60 0.60 0.59 0.57 0.55 0.55 0.56 0.55 0.55 0.54 0.54 0.53 0.51 0.51 0.52 0.53 0.52 0.51 0.49 0.49
0.93 0.98 0.97 0.92 0.87 0.79 0.77 0.77 0.75 0.69 0.63 0.60 0.61 0.60 0.60 0.59 0.59 0.59 0.59 0.60 0.59 0.60 0.61 0.60 0.60 0.59 0.60 0.60 0.60 0.59 0.61 0.60 0.59 0.57 0.55 0.53 0.53 0.53 0.54 0.53 0.51 0.50
0.95 1.01 0.96 0.93 0.87 0.77 0.75 0.75 0.76 0.72 0.66 0.64 0.61 0.63 0.63 0.61 0.61 0.61 0.61 0.61 0.61 0.63 0.64 0.65 0.65 0.66 0.66 0.64 0.63 0.64 0.64 0.65 0.63 0.61 0.60 0.59 0.58 0.56 0.56 0.56 0.56 0.54
0.91 0.93 0.87 0.89 0.88 0.83 0.79 0.77 0.78 0.77 0.72 0.66 0.65 0.67 0.69 0.68 0.68 0.69 0.69 0.67 0.66 0.68 0.71 0.72 0.74 0.72 0.72 0.71 0.72 0.72 0.71 0.72 0.72 0.71 0.69 0.67 0.66 0.64 0.63 0.62 0.61 0.61
0.90 0.95 0.89 0.88 0.88 0.89 0.84 0.82 0.79 0.81 0.82 0.75 0.70 0.73 0.76 0.79 0.77 0.76 0.77 0.77 0.74 0.73 0.74 0.76 0.77 0.79 0.79 0.79 0.78 0.77 0.77 0.76 0.77 0.78 0.79 0.78 0.77 0.76 0.75 0.74 0.73 0.72
0.87 0.94 0.92 0.89 0.91 0.93 0.87 0.83 0.82 0.84 0.87 0.85 0.80 0.76 0.80 0.83 0.86 0.86 0.84 0.84 0.83 0.82 0.81 0.79 0.79 0.79 0.81 0.85 0.85 0.84 0.82 0.81 0.80 0.79 0.78 0.79 0.79 0.79 0.79 0.79 0.78 0.77
0.84 0.89 0.92 0.90 0.89 0.90 0.89 0.84 0.83 0.85 0.87 0.91 0.91 0.85 0.85 0.88 0.90 0.92 0.92 0.90 0.91 0.91 0.91 0.91 0.90 0.88 0.87 0.87 0.88 0.87 0.86 0.85 0.84 0.81 0.78 0.78 0.79 0.80 0.80 0.81 0.81 0.80
0.87 0.89 0.91 0.91 0.90 0.90 0.91 0.91 0.88 0.90 0.92 0.91 0.92 0.90 0.88 0.88 0.93 0.94 0.96 0.95 0.95 0.95 0.96 0.99 0.99 0.99 0.96 0.95 0.92 0.90 0.88 0.86 0.84 0.83 0.80 0.78 0.79 0.80 0.80 0.80 0.78 0.79
0.89 0.91 0.92 0.94 0.94 0.95 0.95 0.94 0.93 0.92 0.93 0.93 0.93 0.91 0.90 0.89 0.90 0.93 0.98 1.01 1.02 1.01 1.01 1.02 1.01 0.98 0.98 0.96 0.95 0.93 0.91 0.90 0.88 0.85 0.83 0.80 0.79 0.80 0.81 0.81 0.81 0.81
0.95 0.95 0.95 0.95 0.97 0.97 0.97 0.95 0.94 0.96 1.00 1.02 1.00 0.97 0.94 0.95 0.96 0.97 0.99 0.98 1.00 1.03 1.02 0.99 0.93 0.98 0.98 0.99 0.98 0.98 0.97 0.94 0.92 0.90 0.86 0.81 0.79 0.78 0.79 0.80 0.81 0.82
0.94 0.94 0.94 0.94 0.98 0.97 1.00 0.99 0.97 0.96 0.97 0.98 0.99 0.99 0.97 0.97 0.99 1.00 0.98 0.98 0.95 0.97 0.95 0.90 0.92 0.94 0.96 0.97 0.96 0.93 0.91 0.89 0.88 0.85 0.83 0.81 0.80 0.78 0.79 0.81 0.82 0.83
0.93 0.92 0.92 0.92 0.93 0.92 0.93 0.96 0.98 0.96 0.92 0.92 0.92 0.91 0.92 0.92 0.91 0.87 0.87 0.89 0.88 0.83 0.83 0.87 0.91 0.92 0.93 0.94 0.94 0.93 0.91 0.87 0.85 0.84 0.84 0.82 0.80 0.78 0.76 0.78 0.79 0.80
0.90 0.92 0.91 0.91 0.93 0.93 0.93 0.95 0.94 0.92 0.88 0.84 0.80 0.80 0.82 0.86 0.85 0.85 0.86 0.85 0.82 0.84 0.86 0.88 0.88 0.90 0.91 0.93 0.92 0.86 0.79 0.74 0.72 0.70 0.70 0.69 0.69 0.70 0.71 0.72 0.74 0.76
0.89 0.87 0.87 0.89 0.90 0.91 0.97 1.00 0.99 0.93 0.89 0.87 0.82 0.83 0.84 0.80 0.79 0.81 0.79 0.80 0.82 0.83 0.84 0.86 0.86 0.88 0.89 0.86 0.78 0.73 0.70 0.67 0.63 0.60 0.58 0.56 0.56 0.56 0.56 0.56 0.58 0.59
0.87 0.88 0.86 0.88 0.89 0.87 0.87 0.92 0.93 0.90 0.92 0.91 0.91 0.90 0.84 0.80 0.80 0.79 0.78 0.79 0.82 0.82 0.82 0.84 0.85 0.86 0.82 0.75 0.72 0.67 0.59 0.53 0.50 0.48 0.48 0.49 0.50 0.52 0.54 0.55 0.56 0.56
0.79 0.84 0.85 0.87 0.87 0.85 0.84 0.85 0.90 0.90 0.92 0.91 0.88 0.83 0.81 0.80 0.79 0.78 0.80 0.82 0.83 0.83 0.79 0.77 0.80 0.78 0.72 0.68 0.61 0.53 0.51 0.50 0.48 0.47 0.45 0.44 0.45 0.45 0.45 0.46 0.48 0.50
0.71 0.76 0.82 0.85 0.84 0.82 0.84 0.87 0.87 0.87 0.85 0.84 0.83 0.82 0.82 0.81 0.80 0.79 0.78 0.78 0.77 0.74 0.72 0.73 0.71 0.67 0.62 0.55 0.53 0.52 0.51 0.49 0.47 0.45 0.43 0.42 0.42 0.43 0.44 0.45 0.46 0.47
0.68 0.69 0.70 0.73 0.77 0.78 0.80 0.84 0.86 0.84 0.82 0.82 0.80 0.78 0.75 0.73 0.75 0.77 0.79 0.76 0.72 0.71 0.70 0.67 0.61 0.54 0.52 0.53 0.54 0.54 0.52 0.50 0.48 0.46 0.45 0.43 0.42 0.42 0.43 0.44 0.45 0.45
0.63 0.66 0.68 0.70 0.74 0.75 0.80 0.83 0.85 0.83 0.79 0.78 0.74 0.71 0.69 0.70 0.72 0.75 0.76 0.72 0.69 0.67 0.62 0.53 0.51 0.54 0.55 0.57 0.56 0.56 0.54 0.51 0.50 0.48 0.46 0.45 0.44 0.44 0.44 0.44 0.45 0.45
0.59 0.62 0.61 0.61 0.63 0.67 0.69 0.70 0.71 0.71 0.72 0.73 0.72 0.71 0.70 0.71 0.71 0.69 0.67 0.65 0.63 0.60 0.55 0.54 0.55 0.57 0.58 0.58 0.57 0.56 0.55 0.53 0.52 0.50 0.48 0.47 0.45 0.44 0.44 0.44 0.43 0.44
0.58 0.60 0.63 0.63 0.61 0.62 0.63 0.63 0.66 0.68 0.68 0.68 0.69 0.69 0.69 0.69 0.67 0.66 0.63 0.61 0.59 0.56 0.56 0.57 0.57 0.58 0.58 0.58 0.57 0.56 0.56 0.55 0.54 0.52 0.49 0.48 0.47 0.45 0.43 0.43 0.43 0.42

ECMWFNIL_prec_pwat_009.txt.gz
Precipitable_Water
0.98 0.92 0.84 0.82 0.78 0.74 0.70 0.67 0.64 0.59 0.53 0.50 0.50 0.50 0.50 0.49 0.49 0.47 0.48 0.49 0.49 0.47 0.46 0.47 0.48 0.48 0.48 0.48 0.48 0.45 0.43 0.41 0.40 0.40 0.39 0.37 0.35 0.33 0.30 0.30 0.31 0.31
0.96 0.93 0.87 0.85 0.83 0.79 0.74 0.73 0.71 0.64 0.55 0.50 0.50 0.50 0.49 0.49 0.47 0.45 0.45 0.45 0.45 0.43 0.44 0.44 0.45 0.46 0.45 0.45 0.43 0.40 0.38 0.38 0.36 0.38 0.35 0.33 0.33 0.34 0.36 0.38 0.39 0.41
0.97 0.95 0.93 0.90 0.90 0.82 0.78 0.80 0.80 0.67 0.59 0.52 0.49 0.49 0.49 0.49 0.46 0.45 0.45 0.44 0.43 0.42 0.42 0.44 0.46 0.48 0.48 0.47 0.46 0.45 0.44 0.44 0.43 0.45 0.42 0.41 0.43 0.43 0.43 0.44 0.44 0.46
0.98 0.99 0.92 0.86 0.84 0.81 0.80 0.87 0.84 0.69 0.60 0.53 0.49 0.50 0.51 0.50 0.48 0.46 0.48 0.48 0.47 0.45 0.45 0.47 0.48 0.49 0.48 0.48 0.47 0.46 0.46 0.46 0.46 0.46 0.44 0.47 0.49 0.49 0.50 0.52 0.52 0.52
0.97 0.99 0.93 0.88 0.82 0.83 0.89 0.88 0.85 0.72 0.61 0.56 0.53 0.53 0.53 0.52 0.51 0.51 0.53 0.54 0.53 0.51 0.51 0.49 0.49 0.49 0.50 0.50 0.51 0.49 0.50 0.49 0.50 0.51 0.50 0.50 0.52 0.53 0.54 0.55 0.54 0.55
0.92 0.91 0.93 0.89 0.85 0.83 0.89 0.87 0.78 0.72 0.65 0.59 0.57 0.56 0.56 0.56 0.55 0.54 0.55 0.55 0.57 0.57 0.56 0.56 0.52 0.51 0.53 0.53 0.53 0.52 0.52 0.52 0.53 0.54 0.53 0.53 0.53 0.55 0.55 0.57 0.56 0.55
0.89 0.91 0.90 0.90 0.84 0.84 0.87 0.79 0.74 0.76 0.71 0.67 0.64 0.60 0.59 0.58 0.57 0.57 0.57 0.57 0.56 0.58 0.59 0.59 0.59 0.56 0.58 0.58 0.58 0.56 0.56 0.55 0.54 0.54 0.53 0.54 0.55 0.54 0.54 0.54 0.55 0.55
0.87 0.92 0.89 0.88 0.83 0.85 0.82 0.73 0.75 0.78 0.75 0.70 0.64 0.63 0.62 0.59 0.59 0.61 0.61 0.60 0.59 0.59 0.60 0.61 0.62 0.62 0.61 0.62 0.62 0.62 0.62 0.61 0.60 0.58 0.56 0.56 0.57 0.55 0.56 0.57 0.56 0.55
0.84 0.86 0.88 0.83 0.80 0.81 0.73 0.71 0.75 0.80 0.79 0.72 0.66 0.64 0.64 0.63 0.61 0.61 0.62 0.62 0.61 0.61 0.62 0.63 0.65 0.66 0.66 0.65 0.66 0.69 0.70 0.72 0.73 0.72 0.71 0.68 0.65 0.63 0.62 0.62 0.61 0.62
0.82 0.84 0.83 0.84 0.79 0.80 0.72 0.73 0.77 0.79 0.80 0.76 0.71 0.66 0.64 0.66 0.67 0.64 0.64 0.64 0.65 0.65 0.66 0.67 0.69 0.70 0.71 0.74 0.75 0.74 0.74 0.76 0.77 0.76 0.77 0.77 0.77 0.75 0.73 0.72 0.70 0.70
0.84 0.82 0.79 0.80 0.82 0.82 0.77 0.76 0.79 0.81 0.83 0.81 0.77 0.70 0.68 0.69 0.72 0.73 0.69 0.68 0.69 0.71 0.73 0.73 0.74 0.76 0.76 0.79 0.80 0.81 0.79 0.77 0.76 0.77 0.77 0.78 0.80 0.80 0.79 0.78 0.78 0.76
0.84 0.84 0.84 0.81 0.81 0.82 0.81 0.79 0.80 0.82 0.84 0.85 0.84 0.78 0.73 0.74 0.76 0.78 0.78 0.78 0.79 0.81 0.82 0.82 0.82 0.83 0.84 0.84 0.85 0.86 0.86 0.84 0.84 0.82 0.80 0.79 0.78 0.79 0.80 0.81 0.80 0.79
0.82 0.84 0.87 0.90 0.88 0.85 0.85 0.82 0.81 0.81 0.82 0.84 0.86 0.85 0.82 0.78 0.80 0.83 0.85 0.84 0.85 0.87 0.88 0.90 0.92 0.93 0.93 0.92 0.93 0.94 0.93 0.91 0.90 0.88 0.85 0.83 0.81 0.81 0.81 0.82 0.82 0.81
0.84 0.86 0.90 0.92 0.94 0.96 0.93 0.91 0.87 0.84 0.83 0.84 0.87 0.89 0.91 0.90 0.85 0.86 0.90 0.90 0.90 0.92 0.93 0.95 0.95 0.96 0.96 0.96 0.98 0.99 0.98 0.98 0.97 0.93 0.90 0.88 0.86 0.84 0.83 0.82 0.82 0.82
0.87 0.89 0.91 0.92 0.92 0.91 0.91 0.93 0.96 0.96 0.93 0.89 0.90 0.92 0.97 0.98 0.93 0.89 0.89 0.91 0.94 0.94 0.94 0.95 0.97 0.99 0.99 0.97 0.99 1.02 1.02 1.00 1.00 0.98 0.94 0.92 0.91 0.88 0.86 0.83 0.82 0.81
0.88 0.89 0.90 0.90 0.87 0.86 0.89 0.91 0.93 0.97 0.97 0.94 0.92 0.94 0.97 1.00 0.97 0.93 0.92 0.92 0.91 0.92 0.95 0.98 1.00 1.00 0.96 0.97 1.00 1.02 1.03 1.03 1.01 0.97 0.94 0.91 0.87 0.84 0.83 0.82 0.80 0.81
0.85 0.88 0.90 0.89 0.88 0.90 0.94 0.95 0.94 0.98 1.04 0.99 0.98 0.99 0.98 1.00 1.01 0.97 0.94 0.96 0.93 0.92 0.94 0.96 0.97 0.93 0.92 0.93 0.95 1.00 1.02 1.01 0.97 0.94 0.91 0.87 0.83 0.80 0.76 0.76 0.77 0.79
0.84 0.87 0.87 0.88 0.90 0.90 0.90 0.93 0.96 0.98 0.97 0.96 0.96 0.96 0.94 0.93 0.92 0.94 0.95 0.96 0.94 0.90 0.86 0.88 0.92 0.89 0.88 0.91 0.96 0.97 0.98 0.93 0.87 0.82 0.78 0.75 0.72 0.68 0.64 0.62 0.62 0.65
0.80 0.85 0.87 0.88 0.89 0.91 0.92 0.93 0.94 0.94 0.95 0.95 0.95 0.98 0.97 0.94 0.95 0.96 0.95 0.94 0.91 0.85 0.81 0.82 0.84 0.78 0.78 0.84 0.88 0.91 0.86 0.81 0.77 0.73 0.69 0.64 0.58 0.56 0.55 0.54 0.53 0.52
0.76 0.80 0.82 0.87 0.91 0.92 0.93 0.93 0.93 0.92 0.93 0.93 0.95 0.96 0.96 0.92 0.91 0.91 0.92 0.90 0.86 0.80 0.76 0.78 0.77 0.76 0.79 0.84 0.87 0.81 0.75 0.71 0.68 0.64 0.58 0.55 0.55 0.55 0.56 0.55 0.55 0.54
0.69 0.75 0.78 0.82 0.85 0.88 0.92 0.93 0.94 0.94 0.93 0.93 0.93 0.93 0.92 0.92 0.91 0.90 0.89 0.87 0.84 0.82 0.78 0.78 0.78 0.80 0.83 0.86 0.79 0.74 0.69 0.65 0.59 0.52 0.49 0.49 0.50 0.50 0.50 0.51 0.52 0.53
0.61 0.65 0.72 0.78 0.81 0.84 0.86 0.89 0.91 0.91 0.90 0.93 0.93 0.95 0.95 0.95 0.95 0.93 0.89 0.86 0.85 0.83 0.80 0.80 0.83 0.85 0.86 0.79 0.74 0.69 0.65 0.60 0.54 0.51 0.49 0.48 0.47 0.47 0.47 0.48 0.49 0.49
0.58 0.61 0.64 0.69 0.76 0.80 0.83 0.86 0.87 0.88 0.90 0.94 0.94 0.95 0.94 0.93 0.93 0.92 0.90 0.87 0.85 0.84 0.83 0.83 0.84 0.88 0.83 0.76 0.70 0.65 0.58 0.54 0.52 0.51 0.49 0.47 0.47 0.47 0.48 0.48 0.48 0.47
0.54 0.57 0.60 0.64 0.68 0.71 0.77 0.81 0.85 0.89 0.91 0.93 0.89 0.92 0.95 0.96 0.91 0.90 0.90 0.89 0.86 0.85 0.86 0.84 0.85 0.84 0.76 0.70 0.64 0.58 0.56 0.54 0.53 0.51 0.50 0.48 0.47 0.47 0.47 0.47 0.46 0.46
0.53 0.53 0.55 0.57 0.60 0.67 0.73 0.76 0.79 0.82 0.86 0.91 0.90 0.85 0.86 0.92 0.92 0.88 0.89 0.90 0.87 0.86 0.88 0.86 0.81 0.74 0.69 0.63 0.58 0.57 0.57 0.56 0.54 0.52 0.50 0.49 0.48 0.46 0.47 0.46 0.46 0.45
0.53 0.52 0.53 0.54 0.56 0.59 0.67 0.74 0.81 0.84 0.85 0.86 0.85 0.84 0.84 0.84 0.85 0.85 0.84 0.83 0.84 0.86 0.84 0.79 0.71 0.68 0.63 0.60 0.60 0.59 0.57 0.56 0.55 0.52 0.49 0.48 0.47 0.46 0.45 0.46 0.46 0.45

ECMWFNIL_prec_pwat_015.txt.gz
Precipitable_Water
1.06 1.00 0.88 0.89 0.86 0.87 0.88 0.83 0.84 0.86 0.90 0.90 0.85 0.79 0.78 0.78 0.78 0.75 0.69 0.68 0.68 0.69 0.72 0.73 0.75 0.77 0.77 0.80 0.81 0.85 0.86 0.81 0.80 0.80 0.79 0.80 0.78 0.74 0.69 0.66 0.58 0.49
1.03 1.00 0.91 0.89 0.87 0.86 0.87 0.87 0.88 0.92 0.91 0.90 0.82 0.78 0.76 0.73 0.71 0.68 0.60 0.57 0.61 0.63 0.68 0.70 0.68 0.68 0.71 0.73 0.77 0.78 0.76 0.70 0.62 0.63 0.61 0.58 0.55 0.54 0.48 0.41 0.38 0.37
1.04 1.00 0.94 0.88 0.86 0.87 0.85 0.87 0.91 0.94 0.94 0.90 0.77 0.71 0.70 0.72 0.71 0.69 0.64 0.59 0.57 0.57 0.59 0.61 0.60 0.60 0.61 0.63 0.65 0.63 0.57 0.52 0.46 0.47 0.47 0.44 0.41 0.38 0.39 0.41 0.42 0.43
1.01 0.97 0.91 0.87 0.85 0.81 0.82 0.87 0.90 0.89 0.86 0.79 0.71 0.64 0.64 0.64 0.67 0.64 0.58 0.54 0.51 0.52 0.50 0.49 0.49 0.50 0.50 0.51 0.51 0.46 0.44 0.43 0.42 0.40 0.38 0.39 0.40 0.43 0.47 0.51 0.53 0.54
0.96 0.93 0.94 0.94 0.86 0.76 0.73 0.76 0.79 0.74 0.70 0.69 0.63 0.60 0.59 0.59 0.57 0.55 0.54 0.50 0.49 0.48 0.50 0.49 0.49 0.47 0.48 0.49 0.48 0.44 0.41 0.40 0.43 0.45 0.47 0.48 0.53 0.56 0.60 0.64 0.63 0.61
0.98 0.96 0.95 0.92 0.81 0.74 0.74 0.69 0.67 0.68 0.69 0.65 0.59 0.56 0.60 0.59 0.58 0.55 0.53 0.52 0.52 0.52 0.51 0.51 0.51 0.53 0.51 0.48 0.47 0.45 0.46 0.48 0.49 0.51 0.51 0.52 0.54 0.59 0.62 0.64 0.64 0.63
0.97 0.93 0.94 0.91 0.85 0.85 0.83 0.73 0.69 0.65 0.65 0.74 0.72 0.60 0.61 0.57 0.57 0.55 0.54 0.56 0.55 0.53 0.53 0.54 0.54 0.54 0.54 0.52 0.51 0.52 0.53 0.52 0.53 0.54 0.54 0.55 0.57 0.58 0.59 0.60 0.61 0.61
1.01 0.98 0.94 0.90 0.89 0.90 0.90 0.84 0.72 0.67 0.65 0.71 0.72 0.71 0.66 0.55 0.57 0.59 0.60 0.60 0.58 0.56 0.55 0.56 0.57 0.57 0.58 0.59 0.58 0.57 0.58 0.60 0.59 0.57 0.55 0.55 0.57 0.58 0.62 0.64 0.63 0.61
1.04 0.96 0.93 0.90 0.93 0.90 0.91 0.89 0.82 0.73 0.76 0.73 0.68 0.76 0.76 0.60 0.61 0.61 0.64 0.66 0.67 0.64 0.60 0.58 0.60 0.63 0.64 0.62 0.59 0.58 0.59 0.61 0.62 0.61 0.59 0.58 0.58 0.58 0.59 0.62 0.63 0.62
1.01 0.97 0.93 0.91 0.90 0.92 0.93 0.94 0.94 0.87 0.84 0.75 0.68 0.63 0.65 0.62 0.62 0.62 0.66 0.69 0.69 0.69 0.68 0.65 0.64 0.67 0.70 0.68 0.66 0.64 0.63 0.64 0.66 0.66 0.63 0.62 0.61 0.58 0.60 0.60 0.64 0.63
0.99 0.98 0.97 0.97 0.95 0.93 0.91 0.93 0.95 0.93 0.90 0.79 0.70 0.59 0.57 0.60 0.61 0.63 0.62 0.66 0.67 0.69 0.68 0.67 0.67 0.65 0.68 0.70 0.74 0.75 0.73 0.71 0.69 0.69 0.70 0.70 0.69 0.69 0.69 0.68 0.70 0.71
1.01 1.01 1.00 1.01 0.99 0.95 0.94 0.93 0.94 0.92 0.90 0.87 0.76 0.67 0.60 0.59 0.64 0.62 0.61 0.62 0.61 0.62 0.64 0.66 0.66 0.66 0.67 0.69 0.69 0.71 0.73 0.72 0.75 0.75 0.76 0.77 0.77 0.80 0.77 0.80 0.81 0.81
0.98 0.98 0.98 1.01 0.99 0.99 0.99 0.98 0.94 0.93 0.91 0.85 0.79 0.76 0.72 0.67 0.64 0.65 0.65 0.66 0.63 0.62 0.63 0.65 0.67 0.68 0.68 0.69 0.72 0.74 0.80 0.83 0.84 0.84 0.83 0.84 0.84 0.85 0.86 0.87 0.86 0.86
0.91 0.95 0.96 0.98 1.00 1.01 1.00 0.98 0.91 0.89 0.89 0.85 0.82 0.80 0.82 0.77 0.75 0.69 0.68 0.68 0.68 0.66 0.67 0.69 0.72 0.71 0.74 0.76 0.79 0.86 0.92 0.92 0.93 0.91 0.90 0.88 0.89 0.88 0.90 0.90 0.89 0.89
0.92 0.93 0.96 0.96 0.95 0.96 0.95 0.95 0.93 0.92 0.89 0.84 0.85 0.86 0.85 0.84 0.84 0.82 0.77 0.71 0.73 0.72 0.73 0.75 0.76 0.77 0.81 0.80 0.83 0.95 1.02 1.00 0.99 0.98 1.00 0.99 0.99 1.00 1.01 0.98 0.99 1.01
0.94 0.94 0.95 0.96 0.95 0.94 0.93 0.92 0.91 0.90 0.88 0.86 0.85 0.86 0.86 0.89 0.89 0.89 0.86 0.79 0.78 0.79 0.79 0.82 0.85 0.87 0.88 0.86 0.90 0.92 0.99 1.01 1.00 1.00 1.01 1.03 1.02 1.01 0.99 1.00 1.00 1.03
0.93 0.92 0.93 0.92 0.93 0.94 0.94 0.94 0.94 0.93 0.93 0.88 0.84 0.84 0.84 0.88 0.89 0.89 0.88 0.87 0.84 0.84 0.86 0.92 0.91 0.93 0.89 0.88 0.93 0.96 0.97 0.96 0.94 0.92 0.94 0.95 0.96 0.98 0.97 0.97 0.98 0.99
0.84 0.85 0.88 0.90 0.91 0.91 0.93 0.95 0.95 0.96 0.94 0.94 0.92 0.88 0.87 0.89 0.90 0.90 0.90 0.89 0.88 0.88 0.90 0.92 0.92 0.92 0.87 0.85 0.87 0.92 0.95 0.95 0.94 0.92 0.94 0.96 0.95 0.93 0.94 0.93 0.93 0.96
0.78 0.78 0.79 0.83 0.88 0.91 0.93 0.93 0.93 0.95 0.96 0.95 0.94 0.93 0.90 0.87 0.87 0.87 0.88 0.91 0.91 0.90 0.92 0.95 0.94 0.92 0.88 0.84 0.84 0.86 0.90 0.94 0.96 0.95 0.93 0.92 0.91 0.90 0.87 0.86 0.88 0.90
0.70 0.76 0.78 0.79 0.79 0.83 0.88 0.90 0.91 0.91 0.95 0.98 0.99 1.01 0.99 0.95 0.89 0.87 0.89 0.89 0.90 0.90 0.91 0.95 0.97 0.96 0.91 0.86 0.85 0.86 0.87 0.90 0.91 0.92 0.93 0.92 0.90 0.88 0.91 0.91 0.88 0.74
0.65 0.66 0.72 0.77 0.80 0.82 0.82 0.80 0.81 0.86 0.89 0.92 0.94 0.96 0.97 0.97 0.96 0.95 0.95 0.95 0.94 0.95 0.93 0.92 0.96 0.98 0.94 0.90 0.89 0.89 0.91 0.91 0.90 0.91 0.95 0.92 0.92 0.98 0.94 0.87 0.87 0.75
0.63 0.62 0.64 0.65 0.68 0.73 0.75 0.75 0.77 0.79 0.81 0.87 0.90 0.92 0.95 0.96 0.96 0.96 0.94 0.90 0.93 0.97 0.96 0.93 0.96 0.98 0.96 0.93 0.92 0.92 0.94 0.94 0.92 0.93 0.92 0.92 0.97 0.94 0.91 0.83 0.74 0.69
0.62 0.62 0.61 0.62 0.63 0.63 0.64 0.68 0.72 0.76 0.80 0.85 0.85 0.87 0.90 0.91 0.89 0.91 0.96 0.95 0.95 0.92 0.90 0.93 1.00 0.96 0.99 0.98 0.95 0.95 0.94 0.92 0.90 0.91 0.90 0.89 0.89 0.91 0.87 0.86 0.76 0.71
0.62 0.61 0.61 0.62 0.62 0.61 0.62 0.65 0.66 0.68 0.70 0.80 0.79 0.80 0.82 0.86 0.90 0.90 0.89 0.89 0.90 0.90 0.91 0.93 0.94 0.98 0.99 0.97 0.97 0.94 0.90 0.86 0.85 0.86 0.85 0.83 0.85 0.86 0.83 0.69 0.59 0.56
0.60 0.61 0.61 0.61 0.61 0.61 0.62 0.61 0.62 0.64 0.64 0.70 0.80 0.81 0.79 0.83 0.85 0.84 0.83 0.87 0.90 0.91 0.92 0.92 0.93 0.95 0.98 1.01 1.04 0.99 0.91 0.88 0.84 0.82 0.78 0.77 0.79 0.75 0.70 0.57 0.54 0.53
0.54 0.55 0.58 0.59 0.59 0.57 0.57 0.58 0.60 0.61 0.63 0.64 0.70 0.78 0.77 0.79 0.82 0.83 0.82 0.84 0.90 0.92 0.91 0.90 0.93 0.94 0.93 0.93 0.95 0.89 0.84 0.88 0.85 0.78 0.74 0.72 0.72 0.70 0.58 0.51 0.50 0.51

ECMWFNIL_prec_pwat_021.txt.gz
Precipitable_Water
0.88 0.87 0.86 0.85 0.86 0.87 0.85 0.82 0.84 0.86 0.93 0.95 0.95 0.98 0.93 0.88 0.87 0.84 0.84 0.79 0.78 0.75 0.76 0.80 0.86 0.92 0.97 1.02 1.03 1.00 0.93 0.89 0.90 0.89 0.82 0.77 0.75 0.73 0.72 0.75 0.76 0.76
0.89 0.88 0.87 0.86 0.84 0.84 0.85 0.84 0.86 0.92 0.93 0.95 0.99 0.99 0.96 0.89 0.84 0.84 0.81 0.80 0.76 0.72 0.76 0.80 0.83 0.88 0.89 0.91 0.95 0.94 0.90 0.88 0.84 0.85 0.80 0.76 0.74 0.71 0.70 0.72 0.73 0.75
0.90 0.89 0.86 0.83 0.82 0.83 0.84 0.87 0.91 0.92 0.93 0.95 0.97 0.93 0.90 0.85 0.77 0.78 0.80 0.77 0.72 0.70 0.73 0.76 0.78 0.82 0.82 0.84 0.87 0.87 0.85 0.84 0.80 0.81 0.78 0.75 0.72 0.70 0.69 0.69 0.69 0.70
0.94 0.91 0.88 0.87 0.87 0.86 0.86 0.86 0.88 0.90 0.91 0.84 0.81 0.81 0.79 0.73 0.68 0.68 0.71 0.72 0.70 0.69 0.71 0.74 0.74 0.75 0.77 0.79 0.78 0.77 0.77 0.76 0.76 0.75 0.71 0.70 0.69 0.68 0.65 0.65 0.63 0.61
0.94 0.91 0.90 0.90 0.90 0.85 0.84 0.84 0.83 0.88 0.86 0.80 0.78 0.75 0.68 0.66 0.63 0.64 0.66 0.66 0.64 0.64 0.66 0.68 0.72 0.73 0.75 0.75 0.72 0.71 0.70 0.67 0.65 0.63 0.62 0.61 0.62 0.58 0.53 0.46 0.40 0.39
0.94 0.91 0.89 0.88 0.86 0.82 0.83 0.80 0.81 0.81 0.81 0.78 0.76 0.74 0.68 0.61 0.61 0.60 0.59 0.56 0.56 0.57 0.59 0.62 0.63 0.65 0.69 0.69 0.69 0.65 0.58 0.52 0.51 0.50 0.50 0.49 0.49 0.50 0.49 0.48 0.44 0.41
0.88 0.88 0.87 0.88 0.85 0.83 0.80 0.79 0.79 0.81 0.81 0.76 0.74 0.73 0.66 0.59 0.56 0.56 0.55 0.52 0.49 0.51 0.54 0.56 0.58 0.60 0.61 0.59 0.55 0.48 0.45 0.43 0.45 0.47 0.47 0.50 0.52 0.53 0.55 0.55 0.56 0.55
0.87 0.88 0.88 0.87 0.84 0.84 0.79 0.77 0.78 0.83 0.82 0.78 0.69 0.67 0.67 0.65 0.57 0.57 0.53 0.49 0.48 0.47 0.50 0.50 0.50 0.51 0.52 0.49 0.45 0.45 0.47 0.51 0.54 0.57 0.57 0.58 0.59 0.57 0.59 0.61 0.60 0.59
0.89 0.88 0.88 0.86 0.85 0.81 0.77 0.78 0.81 0.83 0.81 0.74 0.66 0.63 0.69 0.67 0.62 0.53 0.48 0.49 0.50 0.50 0.50 0.49 0.50 0.52 0.52 0.49 0.50 0.53 0.56 0.58 0.61 0.62 0.63 0.62 0.62 0.61 0.62 0.63 0.61 0.60
0.92 0.93 0.91 0.87 0.82 0.79 0.75 0.79 0.81 0.82 0.80 0.72 0.65 0.64 0.65 0.68 0.65 0.54 0.51 0.52 0.53 0.52 0.53 0.54 0.57 0.57 0.54 0.53 0.58 0.60 0.60 0.61 0.62 0.62 0.62 0.61 0.59 0.58 0.59 0.59 0.59 0.58
0.96 0.96 0.93 0.88 0.83 0.78 0.76 0.77 0.77 0.79 0.74 0.68 0.64 0.64 0.68 0.72 0.69 0.61 0.60 0.56 0.56 0.57 0.58 0.59 0.60 0.59 0.57 0.56 0.61 0.63 0.63 0.62 0.60 0.59 0.59 0.59 0.59 0.59 0.60 0.59 0.58 0.57
0.98 0.95 0.93 0.92 0.89 0.87 0.84 0.83 0.80 0.74 0.66 0.66 0.65 0.68 0.74 0.75 0.69 0.61 0.62 0.58 0.59 0.60 0.63 0.64 0.64 0.63 0.60 0.58 0.62 0.65 0.63 0.62 0.61 0.60 0.59 0.60 0.61 0.61 0.61 0.61 0.60 0.59
1.01 0.98 0.94 0.93 0.94 0.94 0.93 0.92 0.88 0.79 0.69 0.69 0.77 0.76 0.78 0.74 0.69 0.64 0.62 0.60 0.60 0.60 0.63 0.65 0.65 0.65 0.67 0.65 0.65 0.66 0.66 0.65 0.64 0.64 0.65 0.67 0.66 0.65 0.65 0.66 0.66 0.66
1.03 1.02 0.98 0.97 0.98 0.97 0.96 0.94 0.92 0.91 0.87 0.82 0.83 0.82 0.80 0.77 0.73 0.63 0.63 0.61 0.60 0.63 0.64 0.65 0.64 0.63 0.66 0.67 0.68 0.69 0.68 0.69 0.67 0.68 0.69 0.70 0.72 0.72 0.73 0.73 0.75 0.78
1.08 1.06 1.03 1.01 0.97 0.93 0.92 0.92 0.92 0.91 0.91 0.87 0.85 0.85 0.82 0.77 0.76 0.69 0.62 0.58 0.59 0.59 0.61 0.63 0.62 0.61 0.64 0.65 0.65 0.68 0.68 0.68 0.69 0.68 0.69 0.70 0.73 0.76 0.78 0.80 0.82 0.85
1.10 1.06 1.04 1.02 0.98 0.95 0.93 0.93 0.93 0.93 0.92 0.90 0.87 0.87 0.85 0.77 0.77 0.74 0.67 0.62 0.58 0.58 0.60 0.61 0.62 0.63 0.65 0.66 0.66 0.66 0.68 0.68 0.71 0.70 0.70 0.73 0.73 0.75 0.79 0.83 0.85 0.87
1.04 1.01 1.01 0.99 0.98 0.98 0.98 0.97 0.96 0.95 0.92 0.89 0.88 0.89 0.88 0.87 0.85 0.81 0.80 0.76 0.72 0.68 0.65 0.64 0.64 0.65 0.65 0.67 0.67 0.68 0.69 0.69 0.69 0.70 0.71 0.72 0.73 0.74 0.76 0.81 0.85 0.88
1.01 0.99 0.96 0.97 0.98 0.97 0.98 0.98 0.97 0.95 0.93 0.91 0.88 0.87 0.89 0.90 0.86 0.85 0.85 0.84 0.83 0.82 0.79 0.77 0.74 0.74 0.74 0.73 0.72 0.72 0.73 0.74 0.75 0.74 0.74 0.73 0.74 0.75 0.78 0.81 0.83 0.85
0.94 0.92 0.91 0.91 0.94 0.95 0.96 0.96 0.93 0.92 0.92 0.92 0.90 0.91 0.90 0.88 0.88 0.87 0.86 0.87 0.85 0.83 0.84 0.86 0.85 0.84 0.78 0.78 0.79 0.80 0.81 0.82 0.84 0.84 0.85 0.84 0.83 0.83 0.82 0.83 0.83 0.83
0.76 0.81 0.84 0.85 0.87 0.90 0.91 0.89 0.88 0.88 0.90 0.92 0.93 0.94 0.92 0.91 0.92 0.90 0.88 0.87 0.88 0.86 0.85 0.87 0.89 0.90 0.88 0.83 0.81 0.80 0.83 0.87 0.89 0.90 0.90 0.91 0.90 0.89 0.89 0.88 0.88 0.86
0.71 0.72 0.73 0.74 0.74 0.74 0.76 0.77 0.80 0.82 0.87 0.88 0.88 0.88 0.87 0.86 0.87 0.89 0.91 0.91 0.91 0.93 0.90 0.88 0.90 0.92 0.90 0.87 0.83 0.82 0.84 0.86 0.87 0.89 0.92 0.94 0.96 0.97 0.97 0.96 0.97 0.95
0.72 0.71 0.70 0.70 0.70 0.71 0.71 0.71 0.72 0.73 0.73 0.78 0.86 0.88 0.88 0.87 0.86 0.86 0.85 0.88 0.92 0.93 0.93 0.90 0.92 0.94 0.93 0.92 0.91 0.89 0.88 0.89 0.88 0.86 0.86 0.87 0.88 0.97 0.99 0.97 1.02 0.98
0.62 0.62 0.63 0.65 0.67 0.67 0.67 0.66 0.67 0.70 0.73 0.74 0.73 0.73 0.78 0.84 0.83 0.83 0.85 0.86 0.87 0.88 0.88 0.88 0.90 0.93 0.93 0.91 0.90 0.91 0.90 0.88 0.86 0.84 0.83 0.85 0.87 0.91 0.92 0.92 0.93 0.94
0.59 0.60 0.60 0.60 0.61 0.62 0.64 0.66 0.68 0.70 0.70 0.71 0.69 0.68 0.68 0.69 0.71 0.75 0.79 0.80 0.80 0.80 0.83 0.82 0.83 0.86 0.88 0.90 0.90 0.89 0.88 0.84 0.84 0.83 0.83 0.81 0.83 0.86 0.89 0.91 0.93 0.92
0.59 0.59 0.60 0.61 0.62 0.63 0.64 0.63 0.63 0.63 0.64 0.65 0.65 0.65 0.67 0.68 0.70 0.69 0.72 0.77 0.80 0.80 0.83 0.83 0.83 0.86 0.88 0.88 0.87 0.87 0.86 0.86 0.85 0.82 0.78 0.80 0.85 0.85 0.88 0.89 0.91 0.94
0.61 0.60 0.58 0.58 0.58 0.60 0.61 0.61 0.61 0.60 0.59 0.57 0.56 0.56 0.58 0.60 0.61 0.64 0.66 0.69 0.72 0.73 0.75 0.80 0.81 0.83 0.85 0.85 0.83 0.83 0.83 0.82 0.81 0.76 0.75 0.80 0.83 0.83 0.83 0.86 0.86 0.86

ECMWFNIL_prec_pwat_024.txt.gz
Precipitable_Water
0.85 0.82 0.79 0.75 0.77 0.81 0.82 0.84 0.89 0.91 0.93 0.94 0.91 0.91 0.91 0.89 0.88 0.84 0.82 0.80 0.80 0.81 0.82 0.84 0.85 0.85 0.89 0.93 0.96 0.99 1.00 0.94 0.88 0.87 0.86 0.85 0.84 0.85 0.87 0.91 0.94 0.92
0.84 0.85 0.82 0.84 0.87 0.87 0.87 0.89 0.93 0.94 0.93 0.92 0.92 0.92 0.94 0.91 0.86 0.83 0.81 0.79 0.78 0.77 0.78 0.81 0.85 0.87 0.90 0.92 0.95 0.94 0.91 0.89 0.85 0.85 0.81 0.79 0.78 0.80 0.81 0.85 0.84 0.81
0.86 0.85 0.83 0.84 0.86 0.86 0.86 0.90 0.92 0.93 0.90 0.87 0.89 0.91 0.90 0.91 0.85 0.81 0.78 0.75 0.72 0.74 0.76 0.80 0.82 0.88 0.90 0.90 0.92 0.92 0.89 0.86 0.80 0.78 0.75 0.73 0.74 0.75 0.76 0.77 0.75 0.72
0.88 0.86 0.86 0.88 0.89 0.87 0.87 0.89 0.91 0.92 0.91 0.87 0.84 0.84 0.83 0.85 0.81 0.76 0.73 0.71 0.68 0.70 0.73 0.76 0.77 0.81 0.86 0.88 0.89 0.88 0.86 0.82 0.79 0.78 0.75 0.74 0.73 0.74 0.75 0.76 0.75 0.73
0.88 0.87 0.88 0.90 0.91 0.89 0.90 0.89 0.91 0.92 0.90 0.88 0.86 0.83 0.75 0.70 0.68 0.67 0.65 0.63 0.65 0.67 0.68 0.71 0.73 0.75 0.81 0.83 0.83 0.83 0.83 0.80 0.78 0.76 0.72 0.69 0.69 0.68 0.69 0.70 0.70 0.70
0.92 0.90 0.90 0.90 0.89 0.89 0.89 0.88 0.89 0.89 0.89 0.85 0.81 0.79 0.71 0.62 0.61 0.62 0.62 0.61 0.63 0.65 0.65 0.66 0.67 0.71 0.74 0.75 0.77 0.79 0.78 0.78 0.77 0.75 0.72 0.68 0.67 0.67 0.66 0.65 0.66 0.68
0.93 0.91 0.91 0.92 0.90 0.89 0.87 0.85 0.84 0.86 0.86 0.81 0.78 0.73 0.74 0.62 0.59 0.62 0.60 0.58 0.58 0.60 0.61 0.63 0.65 0.67 0.69 0.70 0.69 0.66 0.65 0.68 0.70 0.70 0.69 0.66 0.64 0.59 0.58 0.56 0.57 0.59
0.95 0.94 0.92 0.92 0.89 0.88 0.83 0.79 0.81 0.85 0.85 0.82 0.73 0.71 0.73 0.61 0.56 0.56 0.52 0.51 0.52 0.53 0.57 0.59 0.61 0.65 0.67 0.66 0.63 0.55 0.51 0.53 0.56 0.57 0.56 0.52 0.48 0.44 0.45 0.44 0.45 0.47
1.00 0.95 0.92 0.91 0.88 0.86 0.80 0.77 0.80 0.83 0.83 0.76 0.70 0.66 0.67 0.60 0.56 0.53 0.47 0.47 0.49 0.50 0.52 0.54 0.57 0.59 0.60 0.58 0.54 0.48 0.44 0.46 0.51 0.50 0.48 0.47 0.48 0.49 0.50 0.50 0.46 0.45
0.99 0.95 0.93 0.92 0.88 0.86 0.77 0.78 0.80 0.81 0.80 0.72 0.66 0.66 0.67 0.65 0.62 0.54 0.47 0.46 0.46 0.48 0.49 0.49 0.49 0.49 0.48 0.48 0.46 0.45 0.46 0.48 0.52 0.56 0.57 0.57 0.56 0.57 0.57 0.57 0.55 0.52
0.95 0.93 0.93 0.93 0.91 0.86 0.75 0.78 0.81 0.81 0.75 0.67 0.66 0.67 0.69 0.67 0.65 0.55 0.50 0.51 0.50 0.48 0.49 0.49 0.49 0.48 0.49 0.50 0.52 0.54 0.56 0.59 0.62 0.63 0.62 0.62 0.61 0.61 0.61 0.61 0.60 0.60
0.96 0.95 0.95 0.95 0.92 0.82 0.74 0.78 0.81 0.81 0.72 0.66 0.66 0.67 0.70 0.70 0.67 0.61 0.52 0.53 0.56 0.54 0.53 0.55 0.55 0.53 0.54 0.55 0.57 0.60 0.61 0.62 0.64 0.64 0.63 0.62 0.61 0.62 0.63 0.63 0.61 0.62
1.03 1.01 0.98 0.93 0.84 0.75 0.78 0.83 0.84 0.79 0.71 0.68 0.70 0.72 0.72 0.71 0.70 0.66 0.60 0.55 0.57 0.60 0.61 0.61 0.59 0.56 0.56 0.59 0.61 0.62 0.63 0.63 0.63 0.64 0.63 0.63 0.62 0.62 0.62 0.63 0.62 0.60
1.05 1.07 1.03 0.96 0.90 0.90 0.92 0.94 0.89 0.75 0.68 0.70 0.75 0.76 0.76 0.76 0.71 0.66 0.68 0.60 0.58 0.59 0.63 0.64 0.64 0.60 0.58 0.61 0.63 0.63 0.64 0.65 0.64 0.63 0.63 0.64 0.64 0.64 0.64 0.63 0.63 0.63
0.98 1.05 1.10 1.05 1.00 0.98 0.97 0.95 0.91 0.82 0.72 0.76 0.79 0.81 0.83 0.81 0.76 0.71 0.67 0.63 0.61 0.59 0.61 0.64 0.63 0.62 0.61 0.59 0.61 0.63 0.63 0.63 0.64 0.64 0.64 0.63 0.63 0.64 0.65 0.66 0.67 0.68
1.03 1.03 1.04 1.05 1.06 0.99 0.96 0.95 0.93 0.93 0.91 0.88 0.87 0.88 0.88 0.86 0.78 0.73 0.70 0.63 0.60 0.60 0.60 0.61 0.62 0.63 0.64 0.63 0.63 0.62 0.62 0.62 0.63 0.64 0.65 0.66 0.65 0.64 0.65 0.68 0.69 0.70
1.06 1.05 1.04 1.00 1.08 1.05 0.99 0.97 0.96 0.96 0.95 0.92 0.90 0.89 0.87 0.86 0.82 0.76 0.75 0.70 0.65 0.63 0.60 0.59 0.60 0.62 0.64 0.66 0.66 0.66 0.66 0.65 0.64 0.63 0.65 0.68 0.68 0.66 0.65 0.67 0.70 0.73
1.12 1.13 1.11 1.08 1.10 1.08 1.05 1.01 1.00 0.98 0.96 0.95 0.93 0.91 0.91 0.90 0.83 0.81 0.82 0.80 0.75 0.73 0.72 0.71 0.69 0.68 0.66 0.65 0.65 0.66 0.68 0.68 0.68 0.66 0.65 0.66 0.68 0.69 0.70 0.71 0.71 0.74
0.97 1.00 1.03 1.05 1.06 1.04 1.03 1.01 0.99 0.99 0.99 0.97 0.95 0.96 0.95 0.92 0.92 0.90 0.88 0.90 0.88 0.83 0.79 0.79 0.78 0.79 0.78 0.76 0.74 0.74 0.75 0.76 0.75 0.72 0.70 0.68 0.68 0.69 0.71 0.74 0.77 0.80
0.85 0.87 0.88 0.90 0.93 0.94 0.93 0.92 0.92 0.94 0.98 1.01 1.02 1.01 0.97 0.97 0.97 0.95 0.95 0.93 0.92 0.90 0.88 0.87 0.85 0.85 0.83 0.82 0.80 0.79 0.79 0.79 0.80 0.81 0.81 0.81 0.81 0.80 0.80 0.80 0.81 0.82
0.80 0.81 0.81 0.82 0.83 0.84 0.85 0.84 0.83 0.83 0.85 0.88 0.90 0.92 0.93 0.93 0.94 0.94 0.96 0.97 0.97 0.98 0.95 0.93 0.94 0.93 0.89 0.87 0.84 0.81 0.79 0.78 0.78 0.80 0.81 0.81 0.82 0.82 0.83 0.84 0.84 0.85
0.78 0.77 0.76 0.77 0.77 0.78 0.77 0.76 0.76 0.76 0.77 0.79 0.78 0.79 0.80 0.82 0.85 0.88 0.89 0.91 0.95 0.97 0.97 0.95 0.96 0.95 0.94 0.93 0.92 0.90 0.87 0.83 0.79 0.77 0.77 0.79 0.82 0.85 0.85 0.85 0.86 0.86
0.76 0.75 0.73 0.73 0.74 0.73 0.73 0.72 0.71 0.70 0.70 0.72 0.70 0.70 0.69 0.70 0.71 0.73 0.76 0.78 0.81 0.86 0.86 0.87 0.90 0.94 0.94 0.94 0.93 0.93 0.92 0.90 0.89 0.85 0.86 0.87 0.87 0.89 0.89 0.88 0.87 0.86
0.69 0.71 0.69 0.69 0.70 0.69 0.67 0.66 0.65 0.65 0.65 0.67 0.66 0.66 0.65 0.64 0.65 0.65 0.67 0.69 0.71 0.73 0.78 0.81 0.84 0.88 0.90 0.89 0.89 0.90 0.90 0.88 0.88 0.88 0.90 0.89 0.91 0.95 0.96 0.94 0.90 0.87
0.65 0.64 0.63 0.63 0.63 0.61 0.60 0.59 0.60 0.61 0.62 0.63 0.63 0.63 0.63 0.64 0.64 0.64 0.64 0.65 0.66 0.67 0.68 0.70 0.73 0.80 0.86 0.88 0.89 0.88 0.87 0.86 0.84 0.82 0.81 0.83 0.84 0.85 0.88 0.88 0.89 0.89
0.66 0.64 0.63 0.61 0.60 0.59 0.58 0.58 0.58 0.58 0.57 0.57 0.58 0.58 0.58 0.59 0.59 0.58 0.57 0.59 0.62 0.64 0.66 0.67 0.67 0.71 0.78 0.84 0.85 0.86 0.87 0.85 0.83 0.78 0.74 0.75 0.77 0.77 0.77 0.79 0.81 0.81

ECMWFNIL_prec_pwat_027.txt.gz
Precipitable_Water
0.86 0.85 0.84 0.84 0.84 0.85 0.89 0.91 0.94 0.95 0.95 0.95 0.91 0.90 0.93 0.96 0.97 0.89 0.86 0.84 0.81 0.80 0.85 0.86 0.83 0.80 0.81 0.81 0.84 0.87 0.92 0.99 1.02 1.03 0.96 0.89 0.87 0.88 0.89 0.94 0.97 0.97
0.90 0.85 0.84 0.82 0.84 0.88 0.91 0.94 0.96 0.97 0.97 0.96 0.92 0.91 0.92 0.93 0.94 0.89 0.83 0.81 0.80 0.78 0.82 0.82 0.83 0.84 0.85 0.84 0.87 0.90 0.94 0.94 0.87 0.87 0.83 0.82 0.83 0.84 0.86 0.91 0.92 0.95
0.87 0.81 0.80 0.79 0.82 0.85 0.88 0.94 0.97 0.98 0.96 0.91 0.85 0.86 0.89 0.91 0.89 0.87 0.84 0.81 0.77 0.76 0.77 0.81 0.85 0.87 0.88 0.90 0.93 0.94 0.90 0.84 0.79 0.81 0.82 0.81 0.82 0.83 0.87 0.90 0.91 0.91
0.84 0.81 0.81 0.84 0.87 0.87 0.92 0.94 0.97 0.96 0.92 0.88 0.86 0.86 0.85 0.86 0.85 0.82 0.81 0.77 0.73 0.76 0.80 0.84 0.88 0.91 0.91 0.92 0.91 0.88 0.86 0.83 0.81 0.79 0.77 0.77 0.78 0.82 0.83 0.84 0.82 0.78
0.84 0.85 0.88 0.91 0.93 0.92 0.93 0.93 0.94 0.93 0.90 0.89 0.91 0.91 0.86 0.79 0.78 0.76 0.72 0.68 0.70 0.73 0.75 0.78 0.83 0.87 0.88 0.87 0.88 0.83 0.81 0.78 0.74 0.71 0.70 0.71 0.75 0.77 0.77 0.74 0.71 0.69
0.90 0.90 0.91 0.93 0.93 0.92 0.92 0.90 0.94 0.93 0.90 0.88 0.88 0.90 0.88 0.78 0.71 0.69 0.65 0.61 0.67 0.71 0.72 0.72 0.74 0.77 0.80 0.80 0.80 0.78 0.75 0.72 0.69 0.67 0.66 0.67 0.68 0.70 0.72 0.71 0.69 0.67
0.92 0.90 0.90 0.93 0.92 0.93 0.91 0.91 0.93 0.92 0.91 0.89 0.88 0.83 0.81 0.70 0.64 0.63 0.61 0.60 0.63 0.68 0.69 0.68 0.70 0.72 0.75 0.74 0.76 0.74 0.72 0.71 0.68 0.66 0.64 0.64 0.64 0.65 0.69 0.69 0.67 0.65
0.95 0.94 0.93 0.93 0.92 0.92 0.89 0.90 0.89 0.89 0.90 0.87 0.81 0.77 0.74 0.69 0.61 0.63 0.61 0.60 0.59 0.61 0.63 0.64 0.66 0.69 0.71 0.72 0.70 0.71 0.70 0.70 0.67 0.65 0.63 0.62 0.61 0.60 0.63 0.65 0.64 0.62
0.96 0.95 0.96 0.95 0.92 0.90 0.89 0.85 0.84 0.86 0.88 0.82 0.74 0.70 0.73 0.69 0.62 0.60 0.58 0.57 0.58 0.58 0.60 0.61 0.63 0.65 0.68 0.67 0.64 0.62 0.63 0.65 0.67 0.65 0.62 0.59 0.57 0.57 0.57 0.58 0.57 0.56
0.98 0.98 0.98 0.96 0.92 0.91 0.86 0.81 0.82 0.84 0.83 0.77 0.70 0.68 0.67 0.65 0.58 0.53 0.51 0.51 0.52 0.55 0.57 0.59 0.60 0.62 0.63 0.62 0.59 0.54 0.50 0.53 0.59 0.60 0.58 0.55 0.51 0.48 0.46 0.47 0.49 0.50
1.02 1.01 0.99 0.97 0.96 0.92 0.85 0.79 0.82 0.83 0.81 0.75 0.68 0.65 0.66 0.61 0.58 0.53 0.46 0.48 0.49 0.51 0.53 0.55 0.57 0.57 0.55 0.54 0.54 0.51 0.48 0.49 0.52 0.52 0.51 0.49 0.49 0.49 0.49 0.46 0.46 0.49
1.09 1.05 1.00 0.98 0.96 0.93 0.83 0.79 0.81 0.81 0.79 0.72 0.67 0.66 0.68 0.66 0.61 0.54 0.50 0.48 0.49 0.51 0.51 0.51 0.50 0.50 0.49 0.50 0.49 0.49 0.48 0.48 0.51 0.52 0.54 0.55 0.56 0.57 0.57 0.56 0.53 0.52
1.07 1.08 1.06 1.02 0.98 0.93 0.81 0.80 0.79 0.81 0.76 0.68 0.68 0.69 0.71 0.68 0.64 0.56 0.52 0.53 0.54 0.52 0.50 0.50 0.50 0.51 0.51 0.51 0.52 0.52 0.51 0.52 0.55 0.58 0.59 0.59 0.60 0.60 0.61 0.61 0.60 0.59
1.06 1.09 1.08 1.05 1.02 0.90 0.77 0.78 0.81 0.80 0.73 0.70 0.70 0.71 0.73 0.72 0.68 0.61 0.55 0.55 0.57 0.58 0.58 0.57 0.56 0.54 0.55 0.55 0.57 0.58 0.58 0.58 0.59 0.59 0.60 0.60 0.61 0.61 0.63 0.62 0.62 0.63
1.12 1.12 1.11 1.04 0.93 0.87 0.85 0.85 0.84 0.80 0.74 0.71 0.72 0.76 0.77 0.79 0.79 0.74 0.62 0.56 0.57 0.59 0.60 0.64 0.63 0.59 0.57 0.57 0.58 0.60 0.62 0.61 0.61 0.61 0.61 0.60 0.60 0.61 0.62 0.63 0.64 0.63
1.11 1.12 1.05 0.98 0.95 0.94 0.89 0.89 0.87 0.78 0.73 0.74 0.75 0.79 0.82 0.87 0.84 0.78 0.73 0.66 0.58 0.57 0.60 0.63 0.64 0.65 0.63 0.60 0.59 0.60 0.61 0.62 0.63 0.63 0.63 0.62 0.61 0.60 0.61 0.62 0.62 0.63
1.13 1.08 1.06 1.04 1.03 1.00 1.00 1.00 0.93 0.86 0.81 0.81 0.82 0.84 0.86 0.87 0.85 0.77 0.72 0.72 0.66 0.58 0.56 0.58 0.61 0.64 0.65 0.64 0.62 0.61 0.62 0.62 0.61 0.62 0.64 0.65 0.64 0.62 0.60 0.60 0.61 0.62
1.10 1.07 1.06 1.06 1.06 1.03 1.02 1.03 1.02 1.00 0.97 0.96 0.94 0.92 0.91 0.90 0.86 0.83 0.77 0.72 0.69 0.65 0.60 0.59 0.60 0.62 0.63 0.65 0.65 0.65 0.65 0.64 0.63 0.61 0.62 0.63 0.64 0.64 0.63 0.62 0.61 0.61
1.00 1.01 1.00 1.01 1.03 1.02 1.00 1.00 0.98 0.98 0.97 0.98 0.97 0.98 0.97 0.94 0.92 0.89 0.86 0.84 0.80 0.74 0.70 0.70 0.69 0.70 0.68 0.66 0.65 0.65 0.65 0.65 0.65 0.66 0.64 0.64 0.64 0.65 0.65 0.64 0.63 0.62
0.90 0.93 0.94 0.96 0.98 0.97 0.97 0.94 0.93 0.91 0.92 0.96 1.00 0.98 0.94 0.93 0.93 0.91 0.90 0.89 0.88 0.87 0.86 0.85 0.83 0.82 0.80 0.78 0.76 0.74 0.73 0.72 0.70 0.69 0.69 0.70 0.70 0.70 0.70 0.70 0.70 0.68
0.81 0.83 0.85 0.87 0.90 0.90 0.90 0.89 0.88 0.89 0.91 0.93 0.93 0.93 0.89 0.87 0.85 0.84 0.83 0.84 0.87 0.90 0.89 0.90 0.92 0.94 0.94 0.93 0.90 0.87 0.84 0.81 0.79 0.78 0.77 0.77 0.78 0.78 0.78 0.77 0.76 0.75
0.79 0.81 0.83 0.84 0.84 0.85 0.86 0.86 0.86 0.87 0.87 0.88 0.87 0.86 0.85 0.85 0.85 0.85 0.84 0.83 0.84 0.85 0.86 0.87 0.92 0.96 0.97 0.97 0.97 0.97 0.96 0.93 0.89 0.84 0.80 0.79 0.78 0.79 0.79 0.80 0.80 0.79
0.80 0.80 0.82 0.84 0.83 0.83 0.82 0.87 0.84 0.83 0.83 0.84 0.82 0.82 0.81 0.81 0.81 0.81 0.80 0.79 0.79 0.80 0.80 0.82 0.85 0.89 0.92 0.95 0.97 0.98 0.96 0.94 0.93 0.90 0.87 0.82 0.79 0.79 0.80 0.80 0.81 0.82
0.82 0.82 0.79 0.76 0.79 0.80 0.80 0.82 0.82 0.81 0.80 0.79 0.77 0.76 0.75 0.76 0.76 0.74 0.74 0.75 0.74 0.74 0.75 0.76 0.78 0.81 0.83 0.85 0.88 0.90 0.91 0.91 0.92 0.91 0.89 0.88 0.87 0.88 0.87 0.86 0.87 0.88
0.73 0.75 0.80 0.82 0.80 0.79 0.79 0.78 0.79 0.78 0.78 0.77 0.73 0.71 0.69 0.69 0.69 0.67 0.67 0.68 0.69 0.69 0.69 0.69 0.70 0.72 0.74 0.74 0.76 0.79 0.83 0.86 0.87 0.87 0.85 0.85 0.84 0.84 0.89 0.91 0.90 0.90
0.71 0.70 0.69 0.67 0.67 0.69 0.71 0.74 0.76 0.75 0.74 0.72 0.70 0.69 0.67 0.67 0.65 0.64 0.63 0.64 0.65 0.65 0.64 0.65 0.65 0.66 0.67 0.68 0.70 0.72 0.75 0.78 0.81 0.80 0.78 0.79 0.81 0.79 0.77 0.80 0.83 0.85

ECMWFNIL_prec_pwat_030.txt.gz
Precipitable_Water
0.94 0.90 0.89 0.90 0.91 0.93 0.92 0.94 0.96 0.94 0.94 0.95 0.94 0.94 0.93 0.93 0.94 0.88 0.87 0.86 0.86 0.85 0.89 0.93 0.94 0.91 0.90 0.89 0.96 1.06 1.07 1.04 1.03 1.06 1.06 1.04 1.02 1.03 1.02 1.03 1.03 1.01
0.93 0.90 0.91 0.91 0.92 0.94 0.95 0.98 0.97 0.97 0.97 0.98 0.97 0.95 0.93 0.89 0.91 0.90 0.86 0.83 0.84 0.87 0.92 0.96 0.97 0.94 0.91 0.88 0.90 0.94 0.97 0.98 0.99 1.05 1.01 0.96 0.97 0.97 0.96 0.97 0.97 0.99
0.91 0.89 0.89 0.87 0.88 0.90 0.94 0.98 1.00 0.99 0.98 0.96 0.92 0.86 0.82 0.86 0.85 0.86 0.85 0.81 0.80 0.82 0.85 0.89 0.90 0.90 0.91 0.91 0.94 0.96 0.98 0.99 0.98 0.98 0.94 0.88 0.87 0.86 0.87 0.91 0.93 0.95
0.89 0.86 0.85 0.86 0.88 0.89 0.94 0.96 0.99 1.00 0.97 0.93 0.90 0.85 0.82 0.83 0.85 0.84 0.82 0.79 0.75 0.74 0.78 0.82 0.86 0.90 0.93 0.94 0.95 0.97 0.98 0.96 0.91 0.89 0.86 0.85 0.86 0.86 0.88 0.93 0.94 0.95
0.89 0.86 0.84 0.86 0.89 0.92 0.94 0.95 0.97 0.97 0.91 0.93 0.92 0.88 0.83 0.79 0.79 0.80 0.78 0.74 0.72 0.74 0.80 0.85 0.90 0.92 0.93 0.93 0.95 0.93 0.90 0.86 0.84 0.82 0.80 0.79 0.80 0.83 0.88 0.92 0.92 0.92
0.91 0.87 0.86 0.88 0.90 0.91 0.92 0.95 0.97 0.95 0.92 0.92 0.88 0.86 0.84 0.80 0.74 0.72 0.71 0.65 0.68 0.73 0.77 0.81 0.84 0.85 0.87 0.88 0.88 0.85 0.83 0.80 0.75 0.73 0.72 0.72 0.76 0.82 0.83 0.82 0.79 0.77
0.88 0.86 0.86 0.90 0.90 0.92 0.93 0.95 0.97 0.97 0.95 0.93 0.89 0.85 0.84 0.78 0.69 0.64 0.62 0.62 0.66 0.70 0.73 0.74 0.75 0.76 0.79 0.80 0.80 0.77 0.75 0.71 0.68 0.66 0.66 0.69 0.72 0.73 0.73 0.71 0.69 0.68
0.86 0.86 0.89 0.93 0.92 0.93 0.92 0.92 0.94 0.95 0.98 0.92 0.85 0.84 0.82 0.76 0.68 0.62 0.59 0.60 0.64 0.66 0.70 0.70 0.72 0.72 0.73 0.75 0.75 0.73 0.70 0.69 0.66 0.64 0.62 0.63 0.63 0.63 0.66 0.67 0.66 0.64
0.92 0.91 0.95 0.96 0.94 0.95 0.93 0.91 0.94 0.96 0.97 0.89 0.84 0.77 0.74 0.73 0.68 0.61 0.61 0.59 0.59 0.62 0.64 0.66 0.68 0.68 0.71 0.71 0.71 0.74 0.72 0.69 0.66 0.63 0.61 0.59 0.58 0.58 0.60 0.62 0.61 0.60
0.95 0.94 0.94 0.96 0.95 0.97 0.95 0.94 0.94 0.94 0.93 0.87 0.78 0.71 0.69 0.70 0.65 0.60 0.58 0.57 0.56 0.56 0.58 0.60 0.62 0.64 0.66 0.68 0.67 0.65 0.67 0.70 0.69 0.66 0.63 0.61 0.58 0.58 0.58 0.58 0.56 0.56
0.99 0.96 0.95 0.97 0.99 1.00 0.98 0.95 0.93 0.91 0.89 0.82 0.72 0.66 0.67 0.64 0.58 0.54 0.52 0.52 0.53 0.54 0.55 0.57 0.59 0.61 0.61 0.62 0.61 0.59 0.55 0.55 0.62 0.66 0.64 0.62 0.60 0.58 0.56 0.55 0.54 0.54
1.02 1.01 0.99 0.99 1.01 1.03 1.02 0.94 0.90 0.88 0.85 0.80 0.69 0.64 0.65 0.62 0.56 0.52 0.49 0.48 0.50 0.52 0.54 0.56 0.58 0.57 0.56 0.55 0.56 0.55 0.51 0.50 0.55 0.60 0.59 0.56 0.54 0.52 0.51 0.51 0.52 0.54
1.05 1.06 1.05 1.05 1.06 1.07 1.06 0.94 0.87 0.87 0.85 0.75 0.67 0.67 0.65 0.62 0.59 0.55 0.52 0.48 0.47 0.48 0.49 0.50 0.50 0.49 0.50 0.51 0.51 0.50 0.49 0.48 0.51 0.54 0.55 0.56 0.57 0.59 0.60 0.58 0.56 0.57
1.12 1.11 1.11 1.12 1.11 1.11 1.09 0.96 0.90 0.88 0.85 0.75 0.68 0.68 0.67 0.64 0.61 0.58 0.54 0.53 0.52 0.50 0.49 0.49 0.48 0.49 0.50 0.51 0.51 0.51 0.51 0.50 0.51 0.55 0.59 0.61 0.62 0.62 0.63 0.63 0.62 0.61
1.12 1.07 1.10 1.11 1.11 1.09 1.03 0.92 0.88 0.86 0.83 0.74 0.68 0.71 0.72 0.70 0.67 0.64 0.56 0.54 0.55 0.55 0.55 0.55 0.53 0.52 0.53 0.53 0.54 0.56 0.58 0.56 0.56 0.57 0.60 0.62 0.62 0.63 0.64 0.65 0.65 0.65
1.05 1.05 1.08 1.10 1.08 1.04 0.99 0.91 0.88 0.85 0.82 0.74 0.71 0.75 0.77 0.77 0.76 0.74 0.65 0.58 0.56 0.57 0.58 0.58 0.59 0.60 0.59 0.58 0.58 0.58 0.59 0.60 0.60 0.60 0.60 0.61 0.61 0.61 0.62 0.64 0.65 0.65
1.04 1.03 1.05 1.05 1.04 1.02 0.99 0.92 0.88 0.87 0.84 0.78 0.74 0.77 0.80 0.82 0.84 0.78 0.70 0.62 0.59 0.58 0.57 0.58 0.61 0.64 0.65 0.64 0.62 0.61 0.59 0.58 0.59 0.59 0.60 0.59 0.59 0.58 0.58 0.59 0.61 0.63
1.02 1.02 1.02 1.02 1.02 1.00 0.96 0.92 0.88 0.85 0.83 0.81 0.80 0.80 0.83 0.88 0.88 0.85 0.79 0.71 0.65 0.62 0.60 0.61 0.62 0.65 0.66 0.67 0.67 0.66 0.64 0.61 0.59 0.57 0.57 0.57 0.58 0.58 0.58 0.59 0.59 0.61
0.99 0.99 0.97 0.96 0.97 0.96 0.96 0.94 0.89 0.87 0.85 0.84 0.85 0.87 0.87 0.86 0.87 0.86 0.85 0.84 0.78 0.70 0.67 0.68 0.69 0.70 0.69 0.69 0.69 0.68 0.67 0.67 0.65 0.63 0.61 0.60 0.60 0.60 0.60 0.59 0.59 0.59
0.97 0.98 0.91 0.94 0.95 0.94 0.94 0.93 0.91 0.88 0.86 0.88 0.89 0.90 0.88 0.84 0.83 0.82 0.83 0.84 0.83 0.80 0.76 0.74 0.71 0.71 0.71 0.70 0.70 0.70 0.69 0.68 0.67 0.67 0.67 0.66 0.65 0.64 0.64 0.63 0.63 0.63
0.93 0.91 0.88 0.89 0.90 0.90 0.92 0.91 0.90 0.89 0.87 0.87 0.87 0.87 0.85 0.84 0.82 0.81 0.83 0.84 0.84 0.83 0.81 0.79 0.78 0.77 0.76 0.76 0.76 0.76 0.76 0.76 0.73 0.71 0.69 0.67 0.68 0.68 0.68 0.68 0.68 0.70
0.90 0.89 0.88 0.89 0.86 0.87 0.86 0.85 0.86 0.87 0.87 0.86 0.85 0.83 0.83 0.84 0.84 0.82 0.81 0.80 0.81 0.81 0.81 0.80 0.81 0.81 0.81 0.82 0.83 0.84 0.86 0.86 0.84 0.82 0.79 0.78 0.77 0.77 0.76 0.76 0.75 0.75
0.90 0.87 0.85 0.86 0.87 0.86 0.85 0.84 0.82 0.83 0.84 0.86 0.83 0.83 0.82 0.82 0.84 0.83 0.80 0.78 0.77 0.78 0.77 0.76 0.78 0.79 0.79 0.80 0.81 0.83 0.85 0.86 0.86 0.86 0.86 0.84 0.84 0.85 0.86 0.86 0.86 0.85
0.84 0.83 0.83 0.87 0.88 0.86 0.88 0.91 0.89 0.84 0.85 0.85 0.82 0.83 0.84 0.83 0.83 0.81 0.80 0.79 0.78 0.78 0.79 0.77 0.78 0.79 0.79 0.79 0.80 0.81 0.82 0.82 0.82 0.82 0.84 0.85 0.86 0.87 0.88 0.89 0.89 0.90
0.81 0.81 0.84 0.80 0.81 0.84 0.84 0.83 0.86 0.89 0.87 0.85 0.81 0.81 0.82 0.84 0.84 0.82 0.80 0.80 0.79 0.78 0.77 0.76 0.75 0.75 0.76 0.75 0.75 0.75 0.75 0.75 0.76 0.76 0.76 0.78 0.80 0.81 0.86 0.88 0.89 0.91
0.78 0.79 0.79 0.78 0.76 0.75 0.75 0.75 0.76 0.79 0.86 0.88 0.87 0.84 0.81 0.81 0.81 0.79 0.77 0.76 0.76 0.74 0.73 0.72 0.70 0.70 0.70 0.69 0.69 0.69 0.69 0.69 0.69 0.67 0.65 0.67 0.69 0.70 0.71 0.75 0.80 0.83

ECMWFNIL_prec_pwat_033.txt.gz
Precipitable_Water
0.89 0.89 0.88 0.89 0.87 0.87 0.89 0.90 0.94 0.94 0.96 0.98 0.97 0.96 0.94 0.93 0.93 0.91 0.91 0.92 0.93 0.94 0.96 0.97 0.97 1.00 1.05 1.10 1.11 1.18 1.20 1.19 1.20 1.22 1.19 1.16 1.13 1.12 1.10 1.11 1.13 1.13
0.91 0.90 0.91 0.90 0.88 0.90 0.93 0.97 0.97 0.99 0.99 0.99 0.99 0.95 0.93 0.91 0.91 0.91 0.91 0.93 0.94 0.94 0.96 0.96 0.95 0.94 0.95 0.96 1.02 1.08 1.11 1.12 1.09 1.14 1.12 1.08 1.07 1.07 1.06 1.07 1.09 1.13
0.94 0.91 0.90 0.87 0.87 0.89 0.93 0.99 1.01 1.02 1.02 0.99 0.95 0.91 0.85 0.87 0.89 0.91 0.92 0.91 0.89 0.92 0.94 0.95 0.95 0.94 0.91 0.90 0.91 0.98 1.03 1.03 1.00 1.05 1.07 1.04 1.04 1.01 1.02 1.04 1.05 1.06
0.96 0.93 0.92 0.92 0.92 0.92 0.95 0.97 0.99 1.02 1.01 0.96 0.94 0.92 0.87 0.83 0.85 0.86 0.88 0.85 0.83 0.85 0.89 0.92 0.94 0.93 0.90 0.90 0.92 0.92 0.97 1.01 1.04 1.06 1.02 0.97 0.94 0.93 0.93 0.95 0.99 1.02
0.94 0.93 0.93 0.93 0.93 0.93 0.95 0.95 0.97 1.00 1.00 0.99 0.99 0.97 0.87 0.80 0.79 0.82 0.83 0.80 0.80 0.82 0.86 0.89 0.90 0.90 0.89 0.91 0.94 0.93 0.96 0.97 0.97 0.94 0.90 0.86 0.87 0.88 0.90 0.93 0.94 0.98
0.96 0.95 0.94 0.94 0.93 0.93 0.93 0.95 0.98 0.99 0.98 0.96 0.97 0.95 0.86 0.80 0.76 0.77 0.77 0.73 0.75 0.81 0.86 0.89 0.91 0.92 0.93 0.93 0.93 0.92 0.90 0.87 0.85 0.85 0.83 0.82 0.84 0.87 0.90 0.94 0.95 0.96
0.95 0.94 0.95 0.96 0.93 0.94 0.94 0.96 0.99 1.01 1.00 1.00 1.00 0.92 0.88 0.80 0.74 0.71 0.71 0.69 0.74 0.80 0.83 0.86 0.88 0.88 0.91 0.92 0.91 0.89 0.87 0.83 0.78 0.76 0.76 0.77 0.81 0.84 0.89 0.90 0.89 0.90
0.94 0.93 0.94 0.93 0.92 0.93 0.95 0.97 0.98 1.00 1.01 1.00 0.97 0.93 0.88 0.83 0.77 0.69 0.67 0.72 0.75 0.78 0.80 0.81 0.82 0.84 0.87 0.88 0.82 0.76 0.73 0.71 0.69 0.70 0.71 0.75 0.79 0.76 0.75 0.76 0.77 0.76
0.93 0.89 0.89 0.92 0.92 0.92 0.95 0.96 0.98 0.99 1.02 1.01 0.98 0.91 0.85 0.83 0.77 0.67 0.65 0.70 0.75 0.77 0.77 0.77 0.76 0.76 0.78 0.78 0.76 0.72 0.69 0.68 0.67 0.67 0.67 0.68 0.69 0.70 0.70 0.71 0.70 0.69
0.92 0.88 0.87 0.91 0.91 0.94 0.97 0.99 1.00 1.01 1.04 1.05 0.99 0.88 0.79 0.78 0.75 0.65 0.64 0.66 0.69 0.72 0.72 0.71 0.70 0.70 0.71 0.74 0.76 0.77 0.74 0.67 0.65 0.64 0.64 0.65 0.64 0.64 0.65 0.67 0.66 0.65
0.93 0.91 0.91 0.95 0.96 0.97 0.98 1.00 1.01 1.02 1.05 1.03 0.92 0.80 0.76 0.74 0.69 0.62 0.59 0.62 0.63 0.64 0.64 0.64 0.64 0.65 0.67 0.69 0.71 0.72 0.72 0.71 0.68 0.65 0.63 0.62 0.62 0.62 0.62 0.63 0.62 0.62
0.95 0.93 0.96 1.00 1.01 1.00 1.00 1.01 1.02 1.03 1.02 0.98 0.87 0.75 0.71 0.69 0.61 0.55 0.53 0.57 0.60 0.60 0.61 0.60 0.60 0.62 0.64 0.66 0.65 0.62 0.62 0.64 0.68 0.67 0.64 0.62 0.60 0.59 0.57 0.57 0.55 0.55
0.98 0.97 0.99 1.02 1.03 1.04 1.04 1.03 1.01 1.01 0.98 0.92 0.83 0.72 0.67 0.65 0.60 0.54 0.54 0.57 0.57 0.57 0.57 0.57 0.57 0.59 0.60 0.61 0.59 0.57 0.54 0.54 0.59 0.63 0.62 0.61 0.58 0.55 0.52 0.50 0.51 0.54
1.05 1.04 1.04 1.07 1.10 1.10 1.09 1.05 1.01 1.00 0.98 0.92 0.80 0.70 0.69 0.68 0.64 0.57 0.55 0.54 0.53 0.54 0.55 0.57 0.56 0.54 0.53 0.52 0.52 0.52 0.49 0.48 0.52 0.58 0.57 0.56 0.55 0.56 0.59 0.57 0.56 0.58
1.09 1.08 1.10 1.13 1.14 1.14 1.11 1.05 1.02 1.01 0.99 0.92 0.82 0.75 0.75 0.74 0.69 0.63 0.58 0.55 0.53 0.52 0.52 0.54 0.54 0.54 0.54 0.53 0.51 0.50 0.51 0.48 0.48 0.51 0.55 0.57 0.60 0.62 0.64 0.64 0.63 0.61
1.13 1.12 1.12 1.14 1.14 1.12 1.11 1.08 1.05 1.03 1.00 0.95 0.85 0.77 0.76 0.75 0.73 0.70 0.66 0.60 0.57 0.56 0.57 0.56 0.55 0.57 0.56 0.56 0.56 0.57 0.58 0.56 0.55 0.55 0.58 0.62 0.63 0.64 0.65 0.67 0.67 0.67
1.14 1.11 1.09 1.04 1.04 1.06 1.06 1.04 1.03 1.00 0.96 0.93 0.85 0.80 0.80 0.79 0.77 0.75 0.70 0.64 0.61 0.60 0.59 0.61 0.61 0.61 0.60 0.60 0.60 0.60 0.61 0.62 0.63 0.64 0.65 0.65 0.66 0.65 0.64 0.65 0.66 0.68
1.10 1.09 1.05 1.02 1.00 0.99 1.00 1.01 1.00 0.96 0.91 0.89 0.84 0.80 0.82 0.85 0.82 0.80 0.76 0.70 0.67 0.66 0.65 0.65 0.65 0.66 0.66 0.65 0.65 0.64 0.64 0.65 0.66 0.65 0.65 0.66 0.66 0.65 0.65 0.65 0.65 0.66
1.04 1.04 1.01 0.99 0.98 0.98 0.98 0.98 0.94 0.92 0.89 0.85 0.82 0.82 0.84 0.84 0.85 0.85 0.80 0.78 0.71 0.64 0.64 0.65 0.66 0.68 0.69 0.70 0.70 0.71 0.70 0.70 0.69 0.68 0.65 0.64 0.64 0.64 0.63 0.64 0.65 0.65
1.02 1.00 0.96 0.95 0.95 0.96 0.95 0.93 0.90 0.87 0.84 0.83 0.83 0.82 0.82 0.82 0.85 0.87 0.86 0.83 0.78 0.69 0.64 0.64 0.66 0.68 0.70 0.71 0.73 0.75 0.76 0.74 0.72 0.71 0.69 0.68 0.67 0.67 0.67 0.67 0.68 0.67
0.99 0.97 0.93 0.93 0.94 0.94 0.93 0.90 0.88 0.84 0.81 0.81 0.83 0.81 0.81 0.81 0.81 0.82 0.84 0.85 0.85 0.81 0.72 0.65 0.63 0.65 0.67 0.68 0.70 0.72 0.74 0.75 0.74 0.74 0.73 0.74 0.74 0.74 0.74 0.73 0.73 0.72
0.96 0.94 0.91 0.90 0.92 0.93 0.94 0.91 0.86 0.83 0.80 0.81 0.83 0.81 0.81 0.81 0.81 0.81 0.81 0.82 0.84 0.84 0.81 0.75 0.71 0.68 0.68 0.69 0.69 0.71 0.73 0.74 0.75 0.75 0.76 0.78 0.79 0.81 0.81 0.82 0.82 0.81
0.94 0.91 0.95 0.94 0.95 0.95 0.95 0.93 0.91 0.87 0.84 0.84 0.83 0.82 0.81 0.80 0.80 0.79 0.79 0.79 0.80 0.82 0.82 0.81 0.79 0.77 0.75 0.73 0.72 0.73 0.75 0.75 0.76 0.76 0.77 0.78 0.80 0.83 0.85 0.87 0.88 0.87
0.95 0.91 0.90 0.92 0.93 0.93 0.94 0.94 0.95 0.91 0.92 0.90 0.83 0.82 0.82 0.83 0.83 0.80 0.78 0.78 0.78 0.78 0.80 0.81 0.82 0.82 0.80 0.78 0.77 0.76 0.76 0.76 0.75 0.75 0.75 0.76 0.79 0.83 0.85 0.87 0.89 0.89
0.93 0.93 0.89 0.86 0.86 0.86 0.87 0.88 0.93 0.92 0.97 0.96 0.93 0.91 0.88 0.87 0.83 0.79 0.79 0.79 0.79 0.80 0.81 0.80 0.80 0.78 0.77 0.76 0.75 0.75 0.75 0.75 0.73 0.72 0.71 0.73 0.74 0.76 0.79 0.81 0.82 0.84
0.86 0.89 0.91 0.88 0.84 0.80 0.76 0.76 0.78 0.80 0.90 0.93 0.95 0.93 0.91 0.92 0.90 0.85 0.80 0.80 0.79 0.78 0.78 0.79 0.77 0.76 0.75 0.72 0.71 0.69 0.68 0.68 0.67 0.64 0.63 0.63 0.64 0.63 0.63 0.66 0.68 0.71

ECMWFNIL_prec_pwat_036.txt.gz
Precipitable_Water
1.04 1.00 1.00 1.03 1.05 1.05 1.02 1.00 1.01 0.99 1.03 1.02 1.03 1.03 1.01 1.06 1.00 0.97 0.97 0.99 1.01 1.03 1.04 1.12 1.16 1.11 1.12 1.10 1.12 1.12 1.15 1.17 1.16 1.17 1.17 1.18 1.19 1.18 1.17 1.16 1.20 1.11
1.02 0.98 1.03 1.04 1.05 1.03 1.00 1.01 1.01 1.02 1.05 1.07 1.09 1.08 1.11 1.08 0.99 0.98 0.93 0.91 0.93 0.98 1.03 1.04 1.08 1.10 1.08 1.11 1.13 1.11 1.12 1.14 1.15 1.16 1.13 1.15 1.15 1.12 1.12 1.15 1.18 1.22
0.98 0.99 1.01 1.01 1.00 0.95 0.94 0.98 1.01 1.05 1.05 1.08 1.11 1.07 1.06 1.02 0.99 1.00 0.98 0.96 0.91 0.96 1.02 1.02 0.99 1.00 1.04 1.10 1.09 1.08 1.10 1.12 1.08 1.14 1.13 1.13 1.13 1.11 1.10 1.10 1.12 1.13
0.99 1.01 1.01 0.99 0.96 0.94 0.98 1.00 1.02 1.07 1.08 1.03 1.02 1.04 0.97 0.95 0.96 0.97 0.98 0.96 1.01 1.00 1.02 1.02 1.00 0.98 0.97 0.98 1.05 1.03 1.10 1.13 1.13 1.13 1.08 1.09 1.12 1.14 1.11 1.10 1.08 1.11
1.00 1.00 1.01 0.98 0.95 0.98 1.01 1.01 1.02 1.04 1.00 1.01 1.06 1.01 0.96 0.94 0.92 0.93 0.93 0.92 0.96 0.95 1.00 1.02 1.06 1.02 0.98 0.98 0.94 1.00 1.05 1.04 1.06 1.06 1.04 1.05 1.05 1.02 1.04 1.03 1.05 1.05
1.02 1.01 1.03 1.01 0.99 0.98 0.99 1.00 1.01 1.02 1.03 1.01 1.05 1.03 1.00 0.97 0.90 0.88 0.90 0.87 0.87 0.88 0.89 0.94 1.00 1.01 0.98 0.94 0.95 1.00 1.02 1.03 1.01 1.01 1.02 0.97 0.94 0.92 0.97 0.97 1.00 1.02
1.01 1.02 1.03 1.04 0.98 0.97 0.99 1.01 1.02 1.04 1.03 1.03 1.06 1.02 0.98 0.92 0.88 0.83 0.82 0.80 0.80 0.84 0.86 0.85 0.88 0.92 0.91 0.93 0.98 1.01 1.00 1.01 0.97 0.91 0.91 0.89 0.86 0.87 0.90 0.97 0.97 1.00
1.01 1.04 1.03 1.04 0.98 0.97 1.00 1.03 1.03 1.02 1.04 1.04 1.03 1.02 0.97 0.91 0.88 0.79 0.73 0.75 0.76 0.82 0.91 0.88 0.90 0.90 0.89 0.94 0.93 0.95 0.94 0.91 0.85 0.81 0.82 0.84 0.85 0.85 0.93 0.98 0.96 1.00
1.02 1.01 1.03 1.03 0.99 0.99 1.00 1.01 1.02 1.04 1.04 1.01 1.05 1.00 0.96 0.93 0.88 0.75 0.74 0.77 0.81 0.86 0.88 0.88 0.89 0.95 0.91 0.92 0.90 0.84 0.76 0.75 0.76 0.76 0.77 0.79 0.78 0.81 0.83 0.83 0.86 0.93
1.00 1.01 1.01 1.00 0.97 0.98 1.00 1.03 1.03 1.04 1.04 1.03 1.05 1.03 0.95 0.90 0.84 0.79 0.73 0.76 0.83 0.85 0.88 0.85 0.85 0.92 0.86 0.82 0.80 0.77 0.73 0.72 0.75 0.77 0.78 0.78 0.75 0.73 0.72 0.72 0.74 0.76
1.00 1.00 0.97 0.97 0.97 0.98 1.02 1.03 1.02 1.04 1.07 1.07 1.05 0.99 0.94 0.85 0.81 0.78 0.73 0.72 0.77 0.81 0.82 0.80 0.78 0.78 0.83 0.85 0.86 0.82 0.75 0.72 0.71 0.72 0.76 0.76 0.75 0.76 0.75 0.76 0.76 0.77
1.00 0.98 0.94 0.97 1.00 1.03 1.04 1.03 1.04 1.04 1.07 1.08 1.03 0.97 0.90 0.82 0.77 0.74 0.70 0.71 0.70 0.72 0.74 0.75 0.74 0.75 0.76 0.78 0.85 0.86 0.83 0.77 0.73 0.71 0.70 0.71 0.72 0.71 0.73 0.77 0.78 0.78
1.02 0.96 0.92 0.96 1.00 1.02 1.04 1.05 1.06 1.06 1.05 1.02 1.03 0.98 0.88 0.78 0.74 0.70 0.67 0.69 0.71 0.72 0.72 0.71 0.68 0.68 0.72 0.75 0.76 0.78 0.79 0.79 0.77 0.74 0.72 0.72 0.71 0.72 0.72 0.73 0.75 0.77
1.06 0.99 0.95 0.98 1.01 1.03 1.04 1.07 1.07 1.04 1.01 1.00 1.00 0.94 0.85 0.76 0.71 0.69 0.66 0.68 0.68 0.67 0.68 0.66 0.62 0.62 0.67 0.72 0.73 0.74 0.74 0.73 0.77 0.75 0.74 0.73 0.72 0.72 0.71 0.69 0.70 0.69
1.13 1.06 1.03 1.03 1.03 1.05 1.06 1.06 1.05 1.04 1.01 0.97 0.98 0.97 0.89 0.82 0.77 0.71 0.62 0.62 0.63 0.65 0.63 0.68 0.71 0.71 0.69 0.71 0.69 0.66 0.61 0.61 0.68 0.73 0.72 0.69 0.65 0.62 0.60 0.58 0.58 0.60
1.11 1.10 1.06 1.05 1.05 1.06 1.07 1.07 1.06 1.06 1.04 1.00 1.00 1.00 0.94 0.87 0.82 0.77 0.70 0.64 0.63 0.68 0.68 0.63 0.61 0.61 0.60 0.60 0.62 0.65 0.61 0.58 0.59 0.67 0.67 0.63 0.57 0.56 0.56 0.56 0.55 0.57
1.10 1.09 1.06 1.04 1.08 1.11 1.08 1.05 1.04 1.04 1.05 1.04 1.04 1.06 1.00 0.90 0.88 0.84 0.78 0.72 0.67 0.64 0.58 0.57 0.59 0.60 0.58 0.54 0.53 0.51 0.58 0.63 0.62 0.63 0.63 0.64 0.63 0.64 0.64 0.63 0.62 0.64
1.10 1.10 1.07 1.06 1.08 1.08 1.08 1.06 1.03 1.04 1.04 1.03 1.01 1.01 1.02 0.97 0.92 0.87 0.84 0.79 0.70 0.65 0.61 0.60 0.59 0.58 0.56 0.56 0.56 0.55 0.55 0.61 0.61 0.61 0.61 0.70 0.74 0.73 0.72 0.72 0.72 0.72
1.11 1.10 1.07 1.05 1.07 1.09 1.08 1.05 1.02 1.01 1.02 1.00 0.97 0.99 0.99 0.93 0.88 0.89 0.85 0.77 0.69 0.64 0.62 0.61 0.60 0.61 0.62 0.63 0.63 0.61 0.61 0.61 0.68 0.66 0.66 0.69 0.71 0.72 0.79 0.80 0.81 0.79
1.06 1.08 1.08 1.08 1.08 1.07 1.05 1.02 1.00 0.98 0.98 0.97 0.95 0.96 0.94 0.90 0.85 0.84 0.84 0.78 0.71 0.66 0.63 0.63 0.62 0.62 0.64 0.67 0.69 0.69 0.69 0.71 0.77 0.73 0.77 0.76 0.75 0.76 0.75 0.76 0.74 0.71
1.03 1.04 1.04 1.04 1.04 1.05 1.02 1.00 0.98 0.97 0.96 0.95 0.93 0.90 0.89 0.88 0.85 0.84 0.85 0.82 0.77 0.71 0.65 0.63 0.63 0.64 0.65 0.67 0.70 0.73 0.76 0.76 0.83 0.81 0.81 0.80 0.80 0.81 0.78 0.78 0.77 0.75
1.04 1.03 1.02 1.01 1.00 0.99 0.97 0.96 0.95 0.94 0.92 0.92 0.89 0.86 0.87 0.88 0.87 0.87 0.86 0.84 0.83 0.79 0.73 0.66 0.63 0.64 0.66 0.67 0.69 0.73 0.76 0.78 0.82 0.82 0.83 0.86 0.86 0.85 0.84 0.84 0.84 0.82
1.05 1.03 1.02 1.00 0.99 0.96 0.93 0.93 0.93 0.92 0.90 0.89 0.86 0.84 0.84 0.83 0.82 0.84 0.85 0.85 0.85 0.85 0.83 0.79 0.73 0.68 0.66 0.67 0.68 0.71 0.76 0.76 0.78 0.78 0.79 0.79 0.81 0.82 0.85 0.86 0.88 0.83
1.04 1.02 1.00 0.99 0.97 0.95 0.94 0.94 0.93 0.90 0.88 0.89 0.85 0.82 0.81 0.81 0.82 0.82 0.83 0.84 0.83 0.83 0.86 0.85 0.83 0.79 0.75 0.71 0.69 0.69 0.73 0.76 0.75 0.75 0.76 0.77 0.77 0.81 0.83 0.84 0.85 0.81
1.03 1.02 1.00 0.99 0.98 0.98 0.98 0.96 0.95 0.93 0.93 0.92 0.89 0.88 0.85 0.85 0.83 0.82 0.81 0.81 0.83 0.83 0.83 0.86 0.85 0.84 0.80 0.77 0.74 0.72 0.71 0.74 0.73 0.71 0.72 0.74 0.72 0.73 0.77 0.79 0.82 0.83
0.98 0.95 0.96 0.97 0.95 0.95 0.97 0.98 0.99 0.98 0.98 1.00 1.00 0.99 0.96 0.95 0.93 0.92 0.90 0.89 0.92 0.89 0.85 0.84 0.82 0.81 0.79 0.77 0.75 0.73 0.72 0.73 0.77 0.73 0.72 0.71 0.71 0.69 0.67 0.69 0.72 0.75

ECMWFNIL_prec_pwat_042.txt.gz
Precipitable_Water
1.08 1.10 1.09 1.14 1.13 1.15 1.15 1.12 1.12 1.13 1.18 1.18 1.13 1.12 1.09 1.11 1.14 1.12 1.12 1.13 1.16 1.19 1.23 1.27 1.26 1.26 1.30 1.30 1.28 1.29 1.27 1.33 1.26 1.25 1.25 1.19 1.17 1.19 1.20 1.22 1.22 1.20
1.02 1.06 1.11 1.16 1.14 1.11 1.10 1.13 1.11 1.12 1.13 1.12 1.12 1.10 1.10 1.09 1.08 1.08 1.06 1.07 1.08 1.08 1.17 1.22 1.29 1.25 1.25 1.27 1.27 1.27 1.24 1.26 1.18 1.27 1.25 1.21 1.21 1.20 1.18 1.20 1.21 1.22
1.09 1.10 1.10 1.09 1.06 1.04 1.10 1.14 1.14 1.12 1.10 1.10 1.11 1.09 1.07 1.07 1.06 1.08 1.02 1.02 1.02 1.06 1.06 1.15 1.18 1.24 1.24 1.27 1.25 1.25 1.21 1.17 1.18 1.27 1.24 1.21 1.21 1.17 1.16 1.18 1.19 1.19
1.13 1.14 1.12 1.08 1.03 1.03 1.09 1.11 1.10 1.09 1.08 1.06 1.05 1.07 1.05 1.04 1.03 1.02 0.97 0.96 1.01 1.02 1.03 1.08 1.11 1.18 1.20 1.23 1.23 1.18 1.22 1.24 1.28 1.23 1.29 1.19 1.18 1.21 1.17 1.15 1.14 1.14
1.14 1.11 1.08 1.08 1.09 1.11 1.12 1.08 1.05 1.04 1.03 1.04 1.05 1.03 1.01 0.98 0.95 0.97 0.97 0.97 0.97 0.95 0.95 1.02 1.06 1.08 1.09 1.13 1.18 1.17 1.21 1.23 1.31 1.24 1.22 1.20 1.18 1.13 1.17 1.18 1.11 1.08
1.15 1.13 1.12 1.14 1.13 1.11 1.08 1.05 1.02 1.00 1.00 0.98 0.97 1.00 0.98 0.95 0.97 0.97 1.00 0.96 0.95 0.99 1.00 1.03 1.05 1.07 1.06 1.05 1.06 1.10 1.13 1.17 1.22 1.17 1.18 1.19 1.18 1.18 1.13 1.16 1.13 1.11
1.10 1.11 1.13 1.14 1.11 1.09 1.05 1.02 0.99 0.98 0.97 0.95 0.97 0.98 0.95 0.96 0.94 0.89 0.94 0.92 0.91 0.92 0.96 0.96 1.03 1.07 1.09 1.04 1.04 1.03 1.06 1.09 1.13 1.13 1.10 1.15 1.15 1.15 1.15 1.13 1.12 1.09
1.09 1.10 1.14 1.15 1.11 1.09 1.05 1.02 0.98 0.97 0.97 0.93 0.96 0.95 0.99 0.99 0.95 0.92 0.84 0.88 0.87 0.82 0.91 0.95 0.99 1.05 1.06 1.04 1.01 0.98 1.05 1.07 1.08 1.10 1.07 1.08 1.12 1.13 1.16 1.13 1.10 1.08
1.11 1.09 1.10 1.11 1.10 1.07 1.05 1.00 0.99 0.99 0.96 0.95 0.94 0.95 1.00 1.03 0.96 0.82 0.79 0.81 0.84 0.84 0.82 0.88 0.91 0.96 1.00 1.00 0.98 0.98 1.00 1.04 1.06 1.07 1.05 1.05 1.04 1.06 1.09 1.12 1.07 1.07
1.10 1.07 1.04 1.06 1.06 1.07 1.06 1.02 1.01 0.99 1.00 0.95 0.93 0.96 0.98 1.00 0.94 0.85 0.80 0.84 0.80 0.79 0.81 0.88 0.90 0.89 0.91 0.97 0.95 0.97 0.97 0.96 0.96 0.96 0.98 0.96 0.94 0.96 0.98 1.10 1.07 1.07
1.04 1.07 1.04 1.04 1.06 1.08 1.05 1.02 1.01 1.00 1.00 0.97 0.93 0.95 0.98 0.94 0.89 0.90 0.80 0.82 0.76 0.82 0.84 0.87 0.88 0.89 0.89 0.90 0.89 0.91 0.93 0.90 0.91 0.89 0.86 0.86 0.88 0.91 0.97 0.97 1.09 1.10
1.07 1.04 1.07 1.06 1.04 1.05 1.02 1.01 1.02 1.00 0.99 0.99 0.97 0.96 0.96 0.91 0.90 0.89 0.89 0.81 0.74 0.73 0.85 0.83 0.89 0.87 0.90 0.90 0.89 0.88 0.88 0.87 0.92 0.84 0.83 0.84 0.84 0.92 0.95 0.93 0.91 1.03
1.10 1.11 1.11 1.09 1.06 1.05 1.04 1.03 1.04 1.04 1.03 1.00 1.01 0.97 0.92 0.92 0.89 0.88 0.92 0.84 0.80 0.80 0.83 0.83 0.85 0.86 0.91 0.90 0.88 0.88 0.86 0.84 0.81 0.79 0.82 0.83 0.78 0.84 0.83 0.81 0.86 0.92
1.14 1.17 1.15 1.14 1.12 1.10 1.07 1.05 1.06 1.06 1.05 1.03 1.01 0.95 0.92 0.90 0.88 0.88 0.90 0.86 0.85 0.86 0.81 0.79 0.79 0.78 0.81 0.82 0.85 0.88 0.88 0.85 0.81 0.77 0.78 0.78 0.79 0.84 0.82 0.77 0.85 0.85
1.17 1.21 1.22 1.19 1.16 1.13 1.08 1.06 1.06 1.08 1.06 1.03 0.99 0.95 0.93 0.88 0.87 0.87 0.90 0.92 0.92 0.86 0.81 0.77 0.74 0.73 0.74 0.74 0.77 0.83 0.88 0.88 0.87 0.82 0.78 0.75 0.76 0.78 0.77 0.78 0.85 0.87
1.15 1.23 1.21 1.19 1.15 1.12 1.09 1.08 1.08 1.07 1.05 1.01 0.96 0.92 0.89 0.88 0.86 0.87 0.92 0.94 0.93 0.86 0.79 0.74 0.70 0.70 0.71 0.72 0.71 0.74 0.82 0.87 0.86 0.84 0.81 0.78 0.76 0.74 0.75 0.79 0.82 0.81
1.17 1.13 1.27 1.19 1.20 1.15 1.10 1.09 1.07 1.07 1.02 0.98 0.94 0.91 0.90 0.89 0.87 0.86 0.87 0.94 0.92 0.85 0.78 0.72 0.67 0.65 0.68 0.69 0.68 0.70 0.74 0.81 0.87 0.86 0.82 0.80 0.77 0.80 0.80 0.78 0.81 0.82
1.20 1.19 1.25 1.23 1.17 1.14 1.12 1.12 1.10 1.06 1.02 0.99 0.96 0.93 0.91 0.90 0.94 0.94 0.95 0.96 0.94 0.89 0.80 0.72 0.67 0.64 0.62 0.64 0.65 0.65 0.69 0.72 0.76 0.75 0.77 0.80 0.79 0.79 0.78 0.77 0.75 0.79
1.26 1.26 1.24 1.21 1.19 1.15 1.14 1.13 1.11 1.08 1.06 1.02 0.98 0.98 0.97 1.00 1.00 0.99 0.96 0.97 0.95 0.86 0.74 0.67 0.64 0.62 0.60 0.59 0.61 0.63 0.65 0.66 0.68 0.67 0.68 0.71 0.74 0.81 0.82 0.83 0.75 0.78
1.25 1.25 1.22 1.18 1.16 1.14 1.13 1.10 1.08 1.06 1.06 1.04 1.02 1.02 1.01 1.01 1.01 1.02 1.01 1.00 0.95 0.87 0.76 0.65 0.59 0.60 0.58 0.56 0.56 0.59 0.61 0.65 0.67 0.75 0.71 0.74 0.75 0.78 0.81 0.84 0.83 0.85
1.24 1.23 1.15 1.13 1.13 1.11 1.07 1.05 1.04 1.03 1.02 1.02 1.01 1.01 1.00 0.99 1.01 1.02 1.00 0.96 0.93 0.88 0.83 0.75 0.64 0.61 0.60 0.58 0.56 0.55 0.57 0.62 0.69 0.70 0.70 0.76 0.75 0.78 0.80 0.85 0.89 0.89
1.21 1.15 1.13 1.10 1.06 1.03 0.99 0.96 0.96 0.96 0.96 1.00 1.02 1.02 1.01 1.02 1.04 1.03 0.99 0.95 0.92 0.90 0.85 0.80 0.74 0.67 0.63 0.60 0.57 0.56 0.56 0.63 0.64 0.66 0.72 0.76 0.80 0.79 0.81 0.89 0.91 0.94
1.20 1.14 1.09 1.06 1.02 0.99 0.95 0.94 0.93 0.93 0.95 0.99 0.97 0.98 0.98 1.00 1.02 1.02 1.01 0.97 0.94 0.91 0.88 0.84 0.80 0.74 0.68 0.65 0.62 0.60 0.63 0.63 0.63 0.69 0.71 0.76 0.83 0.86 0.88 0.89 0.91 0.92
1.14 1.12 1.09 1.08 1.06 1.03 1.02 1.02 1.01 1.01 1.02 1.01 0.98 0.97 0.97 1.00 1.01 1.01 1.00 0.98 0.95 0.92 0.89 0.87 0.84 0.82 0.76 0.68 0.64 0.65 0.67 0.65 0.64 0.71 0.77 0.76 0.82 0.87 0.88 0.88 0.88 0.87
1.11 1.11 1.11 1.10 1.08 1.07 1.07 1.06 1.06 1.05 1.03 1.02 1.01 0.99 0.99 1.00 1.00 0.98 0.97 0.96 0.95 0.96 0.95 0.90 0.87 0.85 0.83 0.78 0.73 0.68 0.70 0.70 0.66 0.63 0.64 0.67 0.66 0.70 0.81 0.81 0.79 0.77
1.07 1.07 1.07 1.06 1.05 1.04 1.05 1.05 1.06 1.05 1.05 1.04 1.03 1.03 1.02 1.02 1.00 0.97 0.94 0.92 0.92 0.92 0.92 0.92 0.89 0.87 0.84 0.81 0.80 0.77 0.75 0.76 0.71 0.64 0.61 0.62 0.64 0.64 0.63 0.68 0.68 0.70

ECMWFNIL_prec_pwat_048.txt.gz
Precipitable_Water
1.27 1.20 1.11 1.07 1.07 1.09 1.11 1.09 1.10 1.09 1.08 1.10 1.09 1.12 1.15 1.22 1.34 1.32 1.32 1.26 1.22 1.17 1.22 1.22 1.23 1.23 1.26 1.27 1.29 1.27 1.26 1.25 1.29 1.31 1.27 1.25 1.23 1.21 1.19 1.21 1.22 1.20
1.33 1.25 1.17 1.13 1.10 1.10 1.11 1.11 1.09 1.08 1.08 1.11 1.14 1.18 1.23 1.27 1.33 1.34 1.28 1.21 1.21 1.20 1.22 1.22 1.20 1.20 1.20 1.22 1.23 1.23 1.22 1.23 1.23 1.28 1.23 1.22 1.21 1.20 1.19 1.21 1.21 1.22
1.36 1.29 1.22 1.14 1.10 1.08 1.09 1.10 1.11 1.09 1.10 1.14 1.18 1.20 1.22 1.27 1.28 1.29 1.26 1.21 1.18 1.16 1.14 1.16 1.16 1.15 1.16 1.19 1.19 1.18 1.19 1.19 1.19 1.25 1.25 1.21 1.20 1.19 1.20 1.22 1.23 1.22
1.34 1.30 1.27 1.22 1.16 1.10 1.07 1.05 1.07 1.09 1.12 1.12 1.15 1.19 1.22 1.24 1.23 1.25 1.23 1.20 1.16 1.14 1.11 1.12 1.10 1.12 1.14 1.15 1.15 1.18 1.19 1.21 1.24 1.25 1.21 1.20 1.18 1.18 1.19 1.20 1.23 1.23
1.27 1.30 1.32 1.25 1.21 1.12 1.06 1.04 1.05 1.07 1.09 1.12 1.16 1.18 1.18 1.18 1.17 1.18 1.18 1.15 1.14 1.12 1.12 1.10 1.10 1.11 1.13 1.14 1.15 1.13 1.16 1.19 1.23 1.21 1.16 1.12 1.14 1.16 1.19 1.19 1.20 1.20
1.21 1.22 1.27 1.28 1.24 1.13 1.06 1.07 1.09 1.10 1.12 1.12 1.13 1.14 1.13 1.13 1.11 1.10 1.11 1.11 1.12 1.10 1.09 1.09 1.09 1.13 1.14 1.13 1.11 1.11 1.14 1.15 1.16 1.15 1.12 1.11 1.11 1.15 1.17 1.19 1.20 1.19
1.21 1.21 1.28 1.30 1.29 1.21 1.12 1.11 1.12 1.15 1.15 1.13 1.12 1.07 1.09 1.08 1.07 1.06 1.06 1.07 1.07 1.06 1.03 1.03 1.04 1.09 1.12 1.12 1.10 1.09 1.11 1.12 1.13 1.14 1.10 1.11 1.11 1.11 1.16 1.19 1.19 1.17
1.24 1.16 1.17 1.26 1.32 1.24 1.16 1.12 1.14 1.16 1.15 1.11 1.05 1.06 1.07 1.05 1.03 1.00 1.02 1.04 1.04 1.03 1.00 0.99 1.01 1.05 1.09 1.10 1.07 1.06 1.07 1.13 1.12 1.12 1.11 1.14 1.13 1.08 1.11 1.13 1.13 1.11
1.24 1.19 1.16 1.18 1.27 1.25 1.18 1.14 1.14 1.14 1.12 1.05 1.03 1.03 1.04 1.02 0.99 0.98 1.01 1.02 1.00 0.99 0.97 0.95 0.96 0.98 1.02 1.04 1.05 1.05 1.06 1.08 1.10 1.09 1.09 1.09 1.07 1.06 1.08 1.10 1.08 1.08
1.23 1.24 1.17 1.11 1.16 1.22 1.18 1.17 1.14 1.11 1.09 1.04 1.02 0.98 0.96 0.97 0.99 0.98 0.98 0.97 0.97 0.97 0.97 0.94 0.94 0.95 0.97 0.99 1.01 1.03 1.04 1.05 1.07 1.08 1.08 1.08 1.07 1.05 1.07 1.08 1.05 1.04
1.20 1.21 1.21 1.15 1.17 1.29 1.21 1.19 1.15 1.12 1.08 0.99 0.92 0.94 0.95 0.95 0.96 0.96 0.95 0.96 0.96 0.96 0.96 0.93 0.92 0.94 0.95 0.98 1.01 1.05 1.05 1.04 1.04 1.05 1.07 1.07 1.06 1.06 1.06 1.07 1.06 1.04
1.14 1.14 1.18 1.17 1.17 1.28 1.31 1.20 1.19 1.11 1.03 0.94 0.95 0.93 0.94 0.94 0.94 0.93 0.92 0.92 0.93 0.94 0.91 0.89 0.89 0.91 0.93 0.96 1.00 1.04 1.06 1.06 1.05 1.05 1.07 1.08 1.07 1.07 1.07 1.07 1.07 1.06
1.12 1.12 1.15 1.18 1.19 1.22 1.30 1.29 1.18 1.08 0.98 0.94 0.96 0.94 0.91 0.91 0.92 0.91 0.93 0.91 0.89 0.88 0.86 0.86 0.85 0.88 0.90 0.93 0.98 1.02 1.03 1.03 1.03 1.03 1.04 1.05 1.06 1.08 1.10 1.10 1.10 1.08
1.19 1.20 1.20 1.22 1.22 1.20 1.20 1.25 1.19 1.06 0.99 0.99 0.99 0.95 0.92 0.90 0.92 0.92 0.93 0.92 0.88 0.86 0.85 0.87 0.88 0.88 0.89 0.90 0.92 0.96 0.98 0.99 1.01 1.00 0.99 0.99 1.00 1.03 1.06 1.09 1.12 1.12
1.18 1.21 1.22 1.21 1.22 1.19 1.17 1.22 1.16 1.06 1.03 1.02 1.00 0.95 0.93 0.94 0.95 0.93 0.90 0.91 0.90 0.89 0.87 0.89 0.89 0.90 0.90 0.90 0.90 0.91 0.93 0.92 0.95 0.97 0.96 0.95 0.96 0.98 1.01 1.04 1.08 1.13
1.21 1.21 1.23 1.23 1.20 1.17 1.15 1.19 1.20 1.12 1.09 1.04 0.98 0.93 0.93 0.95 0.95 0.93 0.93 0.91 0.90 0.91 0.91 0.89 0.89 0.90 0.90 0.90 0.91 0.91 0.89 0.87 0.88 0.90 0.92 0.94 0.94 0.94 0.97 0.99 1.00 1.04
1.29 1.27 1.25 1.23 1.21 1.20 1.21 1.18 1.21 1.16 1.13 1.07 1.00 0.95 0.93 0.95 0.94 0.93 0.93 0.94 0.93 0.92 0.90 0.89 0.90 0.90 0.90 0.90 0.91 0.92 0.90 0.86 0.84 0.84 0.86 0.88 0.90 0.89 0.89 0.90 0.89 0.93
1.23 1.24 1.28 1.30 1.28 1.23 1.25 1.25 1.22 1.17 1.14 1.09 1.01 0.96 0.95 0.95 0.93 0.92 0.92 0.93 0.93 0.94 0.92 0.90 0.87 0.87 0.88 0.89 0.90 0.91 0.90 0.88 0.86 0.85 0.87 0.88 0.88 0.85 0.83 0.83 0.82 0.83
1.20 1.22 1.24 1.22 1.26 1.26 1.26 1.27 1.25 1.18 1.15 1.09 1.02 0.99 0.95 0.92 0.91 0.91 0.90 0.92 0.92 0.92 0.91 0.92 0.92 0.91 0.89 0.90 0.92 0.92 0.92 0.90 0.90 0.89 0.88 0.87 0.87 0.85 0.82 0.81 0.81 0.79
1.20 1.22 1.21 1.23 1.26 1.28 1.27 1.26 1.23 1.15 1.15 1.13 1.06 0.99 0.95 0.93 0.92 0.90 0.90 0.91 0.91 0.90 0.90 0.92 0.92 0.93 0.93 0.90 0.91 0.94 0.95 0.93 0.92 0.92 0.91 0.89 0.89 0.89 0.86 0.82 0.79 0.76
1.07 1.11 1.21 1.26 1.21 1.25 1.23 1.19 1.22 1.17 1.12 1.11 1.05 0.99 0.96 0.94 0.92 0.91 0.90 0.90 0.90 0.91 0.91 0.91 0.93 0.94 0.95 0.95 0.92 0.91 0.94 0.96 0.95 0.94 0.92 0.90 0.89 0.87 0.85 0.83 0.79 0.76
1.04 1.09 1.12 1.19 1.26 1.27 1.26 1.20 1.17 1.12 1.08 1.10 1.06 1.02 0.99 0.98 0.96 0.94 0.92 0.91 0.91 0.91 0.89 0.88 0.91 0.93 0.94 0.96 0.97 0.94 0.92 0.93 0.93 0.91 0.88 0.86 0.84 0.84 0.83 0.83 0.82 0.81
1.00 1.04 1.08 1.10 1.13 1.18 1.17 1.15 1.14 1.13 1.08 1.09 1.05 1.02 0.98 0.97 0.95 0.94 0.92 0.91 0.90 0.88 0.85 0.82 0.84 0.88 0.91 0.95 0.98 0.98 0.94 0.91 0.90 0.88 0.85 0.83 0.82 0.82 0.82 0.81 0.81 0.82
0.98 1.01 1.04 1.03 1.07 1.11 1.14 1.14 1.14 1.14 1.09 1.07 1.03 1.00 0.98 0.96 0.94 0.92 0.90 0.89 0.88 0.86 0.84 0.79 0.80 0.84 0.87 0.93 0.98 0.99 0.96 0.91 0.87 0.85 0.84 0.82 0.81 0.81 0.81 0.80 0.80 0.79
0.95 1.00 1.03 1.03 1.12 1.12 1.12 1.13 1.12 1.07 1.06 1.06 1.05 1.03 0.99 0.95 0.94 0.91 0.89 0.89 0.87 0.84 0.82 0.79 0.79 0.82 0.85 0.89 0.95 0.98 0.96 0.93 0.90 0.85 0.81 0.82 0.83 0.83 0.83 0.82 0.81 0.80
0.91 0.94 0.99 0.99 1.01 1.07 1.12 1.13 1.14 1.11 1.07 1.06 1.04 1.02 0.98 0.95 0.94 0.93 0.90 0.89 0.87 0.84 0.83 0.83 0.81 0.81 0.84 0.88 0.91 0.94 0.95 0.93 0.92 0.87 0.82 0.81 0.82 0.83 0.81 0.81 0.81 0.81